Wetterdaten: Dienstag, 06.03.2018
Datum Zeit Temp. Aussen Temp. o. S. +5cm Feuchte Auss BlattFeu 1 Luftdruck Regen Sonnenschein Regendauer Solar Windben Empfang
06.03.2018 00:00 4,2 C 3,9 C 0,0 C 86 % 0 lf 991,0 hPa 0,0 l/m 0 min 0 min 0 W/m 15,8 km/h (3 Bft) 95,74 %
06.03.2018 00:02 4,2 C 3,9 C 0,0 C 86 % 0 lf 990,9 hPa 0,0 l/m 0 min 0 min 0 W/m 11,3 km/h (2 Bft) 97,30 %
06.03.2018 00:04 4,2 C 3,9 C 0,0 C 86 % 0 lf 990,9 hPa 0,0 l/m 0 min 0 min 0 W/m 13,5 km/h (3 Bft) 100,00 %
06.03.2018 00:07 4,2 C 3,9 C 0,6 C 86 % 0 lf 990,8 hPa 0,0 l/m 0 min 0 min 0 W/m 11,3 km/h (2 Bft) 100,00 %
06.03.2018 00:08 4,2 C 4,4 C 0,6 C 86 % 0 lf 990,9 hPa 0,0 l/m 0 min 0 min 0 W/m 11,3 km/h (2 Bft) 98,97 %
06.03.2018 00:10 4,2 C 4,4 C 0,6 C 86 % 0 lf 990,8 hPa 0,0 l/m 0 min 0 min 0 W/m 15,8 km/h (3 Bft) 100,00 %
06.03.2018 00:12 4,2 C 4,4 C 0,6 C 86 % 0 lf 990,9 hPa 0,0 l/m 0 min 0 min 0 W/m 11,3 km/h (2 Bft) 95,74 %
06.03.2018 00:14 4,2 C 4,4 C 0,6 C 86 % 0 lf 990,8 hPa 0,0 l/m 0 min 0 min 0 W/m 11,3 km/h (2 Bft) 100,00 %
06.03.2018 00:16 4,2 C 4,4 C 1,1 C 86 % 0 lf 990,8 hPa 0,0 l/m 0 min 0 min 0 W/m 18,0 km/h (3 Bft) 100,00 %
06.03.2018 00:18 4,2 C 4,4 C 0,6 C 86 % 0 lf 990,9 hPa 0,0 l/m 0 min 0 min 0 W/m 15,8 km/h (3 Bft) 97,87 %
06.03.2018 00:20 4,2 C 4,4 C 1,1 C 86 % 0 lf 990,8 hPa 0,0 l/m 0 min 0 min 0 W/m 18,0 km/h (3 Bft) 100,00 %
06.03.2018 00:22 4,2 C 4,4 C 1,1 C 86 % 0 lf 990,9 hPa 0,0 l/m 0 min 0 min 0 W/m 15,8 km/h (3 Bft) 100,00 %
06.03.2018 00:24 4,2 C 4,4 C 1,1 C 86 % 0 lf 990,8 hPa 0,0 l/m 0 min 0 min 0 W/m 15,8 km/h (3 Bft) 97,87 %
06.03.2018 00:26 4,2 C 4,4 C 1,1 C 86 % 0 lf 990,8 hPa 0,0 l/m 0 min 0 min 0 W/m 18,0 km/h (3 Bft) 100,00 %
06.03.2018 00:28 4,2 C 4,4 C 1,7 C 86 % 0 lf 990,7 hPa 0,0 l/m 0 min 0 min 0 W/m 11,3 km/h (2 Bft) 95,65 %
06.03.2018 00:30 4,3 C 4,4 C 1,7 C 86 % 0 lf 990,8 hPa 0,0 l/m 0 min 0 min 0 W/m 11,3 km/h (2 Bft) 95,74 %
06.03.2018 00:32 4,3 C 4,4 C 1,7 C 86 % 0 lf 990,7 hPa 0,0 l/m 0 min 0 min 0 W/m 18,0 km/h (3 Bft) 97,87 %
06.03.2018 00:34 4,3 C 4,4 C 1,7 C 86 % 0 lf 990,7 hPa 0,0 l/m 0 min 0 min 0 W/m 18,0 km/h (3 Bft) 97,87 %
06.03.2018 00:36 4,3 C 4,4 C 1,7 C 86 % 0 lf 990,7 hPa 0,0 l/m 0 min 0 min 0 W/m 11,3 km/h (2 Bft) 97,87 %
06.03.2018 00:38 4,4 C 5,0 C 2,2 C 86 % 0 lf 990,7 hPa 0,0 l/m 0 min 0 min 0 W/m 11,3 km/h (2 Bft) 95,74 %
06.03.2018 00:40 4,4 C 4,4 C 2,2 C 86 % 0 lf 990,7 hPa 0,0 l/m 0 min 0 min 0 W/m 9,0 km/h (2 Bft) 95,65 %
06.03.2018 00:42 4,4 C 4,4 C 2,2 C 86 % 0 lf 990,7 hPa 0,0 l/m 0 min 0 min 0 W/m 13,5 km/h (3 Bft) 95,74 %
06.03.2018 00:44 4,4 C 4,4 C 1,7 C 86 % 0 lf 990,6 hPa 0,0 l/m 0 min 0 min 0 W/m 9,0 km/h (2 Bft) 97,87 %
06.03.2018 00:46 4,5 C 4,4 C 1,7 C 86 % 0 lf 990,6 hPa 0,0 l/m 0 min 0 min 0 W/m 9,0 km/h (2 Bft) 97,87 %
06.03.2018 00:48 4,5 C 4,4 C 1,7 C 86 % 0 lf 990,6 hPa 0,0 l/m 0 min 2 min 0 W/m 11,3 km/h (2 Bft) 95,74 %
06.03.2018 00:50 4,5 C 4,4 C 1,7 C 86 % 0 lf 990,6 hPa 0,0 l/m 0 min 2 min 0 W/m 18,0 km/h (3 Bft) 97,87 %
06.03.2018 00:52 4,5 C 4,4 C 1,7 C 86 % 0 lf 990,7 hPa 0,0 l/m 0 min 0 min 0 W/m 15,8 km/h (3 Bft) 97,83 %
06.03.2018 00:54 4,5 C 4,4 C 1,7 C 86 % 0 lf 990,7 hPa 0,0 l/m 0 min 0 min 0 W/m 13,5 km/h (3 Bft) 95,74 %
06.03.2018 00:56 4,5 C 4,4 C 1,7 C 86 % 0 lf 990,6 hPa 0,0 l/m 0 min 0 min 0 W/m 11,3 km/h (2 Bft) 95,74 %
06.03.2018 00:58 4,5 C 4,4 C 1,1 C 86 % 0 lf 990,6 hPa 0,0 l/m 0 min 0 min 0 W/m 11,3 km/h (2 Bft) 93,62 %
06.03.2018 01:00 4,5 C 4,4 C 1,1 C 85 % 0 lf 990,6 hPa 0,0 l/m 0 min 0 min 0 W/m 18,0 km/h (3 Bft) 97,87 %
06.03.2018 01:02 4,5 C 3,9 C 1,1 C 85 % 0 lf 990,6 hPa 0,0 l/m 0 min 0 min 0 W/m 11,3 km/h (2 Bft) 97,87 %
06.03.2018 01:04 4,5 C 4,4 C 1,1 C 85 % 0 lf 990,7 hPa 0,0 l/m 0 min 0 min 0 W/m 11,3 km/h (2 Bft) 95,65 %
06.03.2018 01:06 4,5 C 4,4 C 1,1 C 85 % 0 lf 990,7 hPa 0,0 l/m 0 min 0 min 0 W/m 11,3 km/h (2 Bft) 95,74 %
06.03.2018 01:08 4,5 C 4,4 C 1,7 C 85 % 0 lf 990,6 hPa 0,0 l/m 0 min 0 min 0 W/m 15,8 km/h (3 Bft) 97,87 %
06.03.2018 01:10 4,5 C 4,4 C 1,1 C 85 % 0 lf 990,6 hPa 0,0 l/m 0 min 0 min 0 W/m 15,8 km/h (3 Bft) 97,87 %
06.03.2018 01:12 4,5 C 4,4 C 1,1 C 85 % 0 lf 990,6 hPa 0,0 l/m 0 min 0 min 0 W/m 13,5 km/h (3 Bft) 97,87 %
06.03.2018 01:14 4,5 C 4,4 C 1,7 C 85 % 0 lf 990,7 hPa 0,0 l/m 0 min 0 min 0 W/m 13,5 km/h (3 Bft) 97,87 %
06.03.2018 01:16 4,5 C 4,4 C 1,7 C 85 % 0 lf 990,7 hPa 0,0 l/m 0 min 0 min 0 W/m 11,3 km/h (2 Bft) 97,83 %
06.03.2018 01:18 4,5 C 4,4 C 1,7 C 85 % 0 lf 990,7 hPa 0,0 l/m 0 min 0 min 0 W/m 13,5 km/h (3 Bft) 97,87 %
06.03.2018 01:20 4,5 C 4,4 C 1,7 C 85 % 0 lf 990,7 hPa 0,0 l/m 0 min 0 min 0 W/m 15,8 km/h (3 Bft) 93,62 %
06.03.2018 01:22 4,5 C 4,4 C 1,7 C 85 % 0 lf 990,7 hPa 0,0 l/m 0 min 0 min 0 W/m 13,5 km/h (3 Bft) 97,87 %
06.03.2018 01:24 4,4 C 4,4 C 1,7 C 85 % 0 lf 990,6 hPa 0,0 l/m 0 min 0 min 0 W/m 13,5 km/h (3 Bft) 95,74 %
06.03.2018 01:26 4,5 C 4,4 C 1,7 C 85 % 0 lf 990,6 hPa 0,0 l/m 0 min 0 min 0 W/m 13,5 km/h (3 Bft) 97,83 %
06.03.2018 01:28 4,4 C 3,9 C 1,7 C 85 % 0 lf 990,5 hPa 0,0 l/m 0 min 0 min 0 W/m 18,0 km/h (3 Bft) 95,74 %
06.03.2018 01:30 4,4 C 4,4 C 1,7 C 85 % 0 lf 990,6 hPa 0,0 l/m 0 min 0 min 0 W/m 11,3 km/h (2 Bft) 97,87 %
06.03.2018 01:32 4,4 C 3,9 C 1,7 C 85 % 0 lf 990,6 hPa 0,0 l/m 0 min 0 min 0 W/m 13,5 km/h (3 Bft) 95,74 %
06.03.2018 01:34 4,4 C 4,4 C 1,7 C 85 % 0 lf 990,5 hPa 0,0 l/m 0 min 0 min 0 W/m 11,3 km/h (2 Bft) 97,87 %
06.03.2018 01:36 4,4 C 4,4 C 1,7 C 85 % 0 lf 990,5 hPa 0,0 l/m 0 min 0 min 0 W/m 11,3 km/h (2 Bft) 97,87 %
06.03.2018 01:38 4,4 C 3,9 C 1,7 C 86 % 0 lf 990,6 hPa 0,0 l/m 0 min 0 min 0 W/m 15,8 km/h (3 Bft) 95,65 %
06.03.2018 01:40 4,4 C 3,9 C 1,7 C 85 % 0 lf 990,6 hPa 0,0 l/m 0 min 0 min 0 W/m 9,0 km/h (2 Bft) 97,87 %
06.03.2018 01:42 4,4 C 3,9 C 1,1 C 85 % 0 lf 990,6 hPa 0,0 l/m 0 min 0 min 0 W/m 9,0 km/h (2 Bft) 91,49 %
06.03.2018 01:44 4,4 C 3,9 C 1,1 C 85 % 0 lf 990,6 hPa 0,0 l/m 0 min 0 min 0 W/m 13,5 km/h (3 Bft) 93,62 %
06.03.2018 01:46 4,4 C 3,9 C 1,1 C 85 % 0 lf 990,6 hPa 0,0 l/m 0 min 0 min 0 W/m 11,3 km/h (2 Bft) 95,74 %
06.03.2018 01:48 4,3 C 3,9 C 1,1 C 85 % 0 lf 990,4 hPa 0,0 l/m 0 min 0 min 0 W/m 13,5 km/h (3 Bft) 95,74 %
06.03.2018 01:50 4,3 C 3,9 C 1,1 C 85 % 0 lf 990,5 hPa 0,0 l/m 0 min 0 min 0 W/m 13,5 km/h (3 Bft) 93,48 %
06.03.2018 01:52 4,3 C 3,9 C 1,1 C 85 % 0 lf 990,5 hPa 0,0 l/m 0 min 0 min 0 W/m 11,3 km/h (2 Bft) 97,87 %
06.03.2018 01:54 4,3 C 3,9 C 1,1 C 85 % 0 lf 990,4 hPa 0,0 l/m 0 min 0 min 0 W/m 11,3 km/h (2 Bft) 93,62 %
06.03.2018 01:56 4,3 C 3,9 C 1,1 C 85 % 0 lf 990,5 hPa 0,0 l/m 0 min 0 min 0 W/m 9,0 km/h (2 Bft) 97,87 %
06.03.2018 01:58 4,2 C 3,9 C 1,1 C 85 % 0 lf 990,5 hPa 0,0 l/m 0 min 0 min 0 W/m 9,0 km/h (2 Bft) 95,74 %
06.03.2018 02:00 4,2 C 3,9 C 1,1 C 85 % 0 lf 990,4 hPa 0,0 l/m 0 min 0 min 0 W/m 13,5 km/h (3 Bft) 97,87 %
06.03.2018 02:02 4,2 C 3,3 C 1,1 C 85 % 0 lf 990,3 hPa 0,0 l/m 0 min 0 min 0 W/m 11,3 km/h (2 Bft) 93,48 %
06.03.2018 02:04 4,2 C 3,3 C 0,6 C 85 % 0 lf 990,4 hPa 0,0 l/m 0 min 0 min 0 W/m 9,0 km/h (2 Bft) 95,74 %
06.03.2018 02:06 4,2 C 3,3 C 0,6 C 85 % 0 lf 990,3 hPa 0,0 l/m 0 min 0 min 0 W/m 11,3 km/h (2 Bft) 91,49 %
06.03.2018 02:08 4,2 C 3,3 C 0,6 C 86 % 0 lf 990,3 hPa 0,0 l/m 0 min 0 min 0 W/m 6,8 km/h (2 Bft) 95,74 %
06.03.2018 02:10 4,2 C 3,3 C 0,6 C 86 % 0 lf 990,3 hPa 0,0 l/m 0 min 0 min 0 W/m 11,3 km/h (2 Bft) 93,62 %
06.03.2018 02:12 4,1 C 3,9 C 0,6 C 86 % 0 lf 990,4 hPa 0,0 l/m 0 min 0 min 0 W/m 11,3 km/h (2 Bft) 95,74 %
06.03.2018 02:14 4,1 C 3,9 C 0,6 C 86 % 0 lf 990,3 hPa 0,0 l/m 0 min 0 min 0 W/m 9,0 km/h (2 Bft) 93,48 %
06.03.2018 02:16 4,1 C 3,3 C 0,6 C 86 % 0 lf 990,3 hPa 0,0 l/m 0 min 0 min 0 W/m 6,8 km/h (2 Bft) 93,62 %
06.03.2018 02:18 4,1 C 3,3 C 0,6 C 86 % 0 lf 990,3 hPa 0,0 l/m 0 min 0 min 0 W/m 6,8 km/h (2 Bft) 95,74 %
06.03.2018 02:20 4,0 C 3,3 C 0,6 C 86 % 0 lf 990,3 hPa 0,0 l/m 0 min 0 min 0 W/m 11,3 km/h (2 Bft) 95,74 %
06.03.2018 02:22 4,0 C 3,3 C 0,6 C 86 % 0 lf 990,3 hPa 0,0 l/m 0 min 0 min 0 W/m 13,5 km/h (3 Bft) 95,74 %
06.03.2018 02:24 4,0 C 3,3 C 0,6 C 86 % 0 lf 990,3 hPa 0,0 l/m 0 min 0 min 0 W/m 15,8 km/h (3 Bft) 93,62 %
06.03.2018 02:26 3,9 C 3,3 C 0,6 C 86 % 0 lf 990,2 hPa 0,0 l/m 0 min 0 min 0 W/m 13,5 km/h (3 Bft) 93,48 %
06.03.2018 02:28 3,9 C 3,3 C 0,6 C 86 % 0 lf 990,2 hPa 0,0 l/m 0 min 0 min 0 W/m 6,8 km/h (2 Bft) 95,74 %
06.03.2018 02:30 3,9 C 3,3 C 0,6 C 86 % 0 lf 990,2 hPa 0,0 l/m 0 min 0 min 0 W/m 15,8 km/h (3 Bft) 97,87 %
06.03.2018 02:32 3,9 C 3,3 C 0,6 C 86 % 0 lf 990,2 hPa 0,0 l/m 0 min 0 min 0 W/m 11,3 km/h (2 Bft) 95,74 %
06.03.2018 02:34 3,9 C 3,3 C 0,6 C 86 % 0 lf 990,2 hPa 0,0 l/m 0 min 0 min 0 W/m 13,5 km/h (3 Bft) 93,62 %
06.03.2018 02:36 3,8 C 3,3 C 0,6 C 86 % 0 lf 990,2 hPa 0,0 l/m 0 min 0 min 0 W/m 11,3 km/h (2 Bft) 89,36 %
06.03.2018 02:38 3,8 C 3,3 C 0,6 C 86 % 0 lf 990,2 hPa 0,0 l/m 0 min 0 min 0 W/m 11,3 km/h (2 Bft) 93,48 %
06.03.2018 02:40 3,8 C 3,3 C 0,6 C 86 % 0 lf 990,2 hPa 0,0 l/m 0 min 0 min 0 W/m 11,3 km/h (2 Bft) 93,62 %
06.03.2018 02:42 3,8 C 3,3 C 0,6 C 86 % 0 lf 990,2 hPa 0,0 l/m 0 min 0 min 0 W/m 6,8 km/h (2 Bft) 95,74 %
06.03.2018 02:44 3,8 C 3,3 C 1,1 C 87 % 0 lf 990,1 hPa 0,0 l/m 0 min 0 min 0 W/m 11,3 km/h (2 Bft) 95,74 %
06.03.2018 02:46 3,8 C 3,3 C 1,1 C 87 % 0 lf 990,1 hPa 0,0 l/m 0 min 0 min 0 W/m 9,0 km/h (2 Bft) 91,49 %
06.03.2018 02:48 3,8 C 3,9 C 1,1 C 87 % 0 lf 990,1 hPa 0,0 l/m 0 min 0 min 0 W/m 9,0 km/h (2 Bft) 95,65 %
06.03.2018 02:50 3,7 C 3,9 C 1,7 C 87 % 0 lf 990,0 hPa 0,0 l/m 0 min 0 min 0 W/m 15,8 km/h (3 Bft) 95,74 %
06.03.2018 02:52 3,7 C 3,9 C 1,7 C 87 % 0 lf 990,0 hPa 0,0 l/m 0 min 0 min 0 W/m 15,8 km/h (3 Bft) 93,62 %
06.03.2018 02:54 3,7 C 3,9 C 1,7 C 87 % 0 lf 990,0 hPa 0,0 l/m 0 min 0 min 0 W/m 13,5 km/h (3 Bft) 93,62 %
06.03.2018 02:56 3,7 C 3,9 C 1,7 C 87 % 0 lf 990,0 hPa 0,0 l/m 0 min 0 min 0 W/m 13,5 km/h (3 Bft) 91,49 %
06.03.2018 02:58 3,7 C 3,9 C 1,7 C 87 % 0 lf 990,0 hPa 0,0 l/m 0 min 0 min 0 W/m 11,3 km/h (2 Bft) 95,74 %
06.03.2018 03:00 3,7 C 3,9 C 1,7 C 87 % 0 lf 990,0 hPa 0,0 l/m 0 min 0 min 0 W/m 9,0 km/h (2 Bft) 95,65 %
06.03.2018 03:02 3,7 C 3,9 C 2,2 C 87 % 0 lf 990,0 hPa 0,0 l/m 0 min 0 min 0 W/m 15,8 km/h (3 Bft) 93,62 %
06.03.2018 03:04 3,8 C 3,9 C 2,2 C 88 % 0 lf 989,9 hPa 0,0 l/m 0 min 0 min 0 W/m 13,5 km/h (3 Bft) 95,74 %
06.03.2018 03:06 3,7 C 3,9 C 2,2 C 88 % 0 lf 989,9 hPa 0,0 l/m 0 min 0 min 0 W/m 15,8 km/h (3 Bft) 97,87 %
06.03.2018 03:08 3,8 C 3,9 C 1,7 C 87 % 0 lf 989,9 hPa 0,0 l/m 0 min 0 min 0 W/m 13,5 km/h (3 Bft) 97,87 %
06.03.2018 03:10 3,8 C 3,9 C 1,7 C 88 % 0 lf 989,9 hPa 0,0 l/m 0 min 0 min 0 W/m 13,5 km/h (3 Bft) 100,00 %
06.03.2018 03:12 3,8 C 3,9 C 1,7 C 88 % 0 lf 989,9 hPa 0,0 l/m 0 min 0 min 0 W/m 18,0 km/h (3 Bft) 97,83 %
06.03.2018 03:14 3,8 C 3,9 C 1,7 C 88 % 0 lf 989,9 hPa 0,0 l/m 0 min 0 min 0 W/m 13,5 km/h (3 Bft) 97,87 %
06.03.2018 03:16 3,8 C 4,4 C 2,2 C 88 % 0 lf 989,8 hPa 0,0 l/m 0 min 0 min 0 W/m 18,0 km/h (3 Bft) 100,00 %
06.03.2018 03:18 3,8 C 4,4 C 2,2 C 88 % 0 lf 989,8 hPa 0,0 l/m 0 min 0 min 0 W/m 18,0 km/h (3 Bft) 100,00 %
06.03.2018 03:20 3,9 C 4,4 C 2,2 C 88 % 0 lf 989,9 hPa 0,0 l/m 0 min 0 min 0 W/m 15,8 km/h (3 Bft) 100,00 %
06.03.2018 03:22 3,9 C 4,4 C 2,2 C 88 % 0 lf 989,9 hPa 0,0 l/m 0 min 0 min 0 W/m 13,5 km/h (3 Bft) 100,00 %
06.03.2018 03:24 3,9 C 4,4 C 2,2 C 88 % 0 lf 989,9 hPa 0,0 l/m 0 min 0 min 0 W/m 15,8 km/h (3 Bft) 97,83 %
06.03.2018 03:26 3,9 C 4,4 C 2,8 C 88 % 0 lf 989,8 hPa 0,0 l/m 0 min 0 min 0 W/m 15,8 km/h (3 Bft) 97,87 %
06.03.2018 03:28 3,9 C 4,4 C 2,8 C 88 % 0 lf 989,8 hPa 0,0 l/m 0 min 0 min 0 W/m 11,3 km/h (2 Bft) 100,00 %
06.03.2018 03:30 4,0 C 4,4 C 2,8 C 88 % 0 lf 989,8 hPa 0,0 l/m 0 min 0 min 0 W/m 6,8 km/h (2 Bft) 100,00 %
06.03.2018 03:32 4,0 C 4,4 C 2,8 C 88 % 0 lf 989,8 hPa 0,0 l/m 0 min 0 min 0 W/m 9,0 km/h (2 Bft) 100,00 %
06.03.2018 03:34 4,1 C 4,4 C 2,8 C 88 % 0 lf 989,8 hPa 0,0 l/m 0 min 0 min 0 W/m 11,3 km/h (2 Bft) 97,87 %
06.03.2018 03:36 4,1 C 4,4 C 2,8 C 88 % 0 lf 989,7 hPa 0,0 l/m 0 min 0 min 0 W/m 15,8 km/h (3 Bft) 100,00 %
06.03.2018 03:38 4,1 C 4,4 C 2,8 C 88 % 0 lf 989,8 hPa 0,0 l/m 0 min 0 min 0 W/m 13,5 km/h (3 Bft) 100,00 %
06.03.2018 03:40 4,1 C 4,4 C 2,8 C 88 % 0 lf 989,8 hPa 0,0 l/m 0 min 0 min 0 W/m 9,0 km/h (2 Bft) 100,00 %
06.03.2018 03:42 4,1 C 4,4 C 2,8 C 88 % 0 lf 989,8 hPa 0,0 l/m 0 min 0 min 0 W/m 18,0 km/h (3 Bft) 100,00 %
06.03.2018 03:44 4,2 C 4,4 C 2,8 C 88 % 0 lf 989,7 hPa 0,0 l/m 0 min 0 min 0 W/m 18,0 km/h (3 Bft) 97,87 %
06.03.2018 03:46 4,2 C 4,4 C 2,8 C 88 % 0 lf 989,7 hPa 0,0 l/m 0 min 0 min 0 W/m 15,8 km/h (3 Bft) 100,00 %
06.03.2018 03:48 4,2 C 4,4 C 2,8 C 88 % 0 lf 989,7 hPa 0,0 l/m 0 min 0 min 0 W/m 20,3 km/h (4 Bft) 97,83 %
06.03.2018 03:50 4,2 C 4,4 C 2,8 C 88 % 0 lf 989,7 hPa 0,0 l/m 0 min 0 min 0 W/m 13,5 km/h (3 Bft) 95,74 %
06.03.2018 03:52 4,2 C 5,0 C 2,8 C 88 % 0 lf 989,7 hPa 0,0 l/m 0 min 0 min 0 W/m 20,3 km/h (4 Bft) 97,87 %
06.03.2018 03:54 4,3 C 5,0 C 2,8 C 88 % 0 lf 989,7 hPa 0,0 l/m 0 min 0 min 0 W/m 15,8 km/h (3 Bft) 95,74 %
06.03.2018 03:56 4,3 C 5,0 C 3,3 C 88 % 0 lf 989,6 hPa 0,0 l/m 0 min 0 min 0 W/m 18,0 km/h (3 Bft) 95,74 %
06.03.2018 03:58 4,3 C 5,0 C 3,3 C 88 % 0 lf 989,6 hPa 0,0 l/m 0 min 0 min 0 W/m 11,3 km/h (2 Bft) 97,83 %
06.03.2018 04:00 4,4 C 5,0 C 3,3 C 88 % 0 lf 989,7 hPa 0,0 l/m 0 min 0 min 0 W/m 15,8 km/h (3 Bft) 97,87 %
06.03.2018 04:05 4,5 C 5,0 C 3,3 C 88 % 0 lf 989,6 hPa 0,0 l/m 0 min 0 min 0 W/m 15,8 km/h (3 Bft) 98,28 %
06.03.2018 04:06 4,5 C 5,0 C 3,3 C 88 % 0 lf 989,6 hPa 0,0 l/m 0 min 0 min 0 W/m 11,3 km/h (2 Bft) 100,00 %
06.03.2018 04:08 4,5 C 5,0 C 3,3 C 88 % 0 lf 989,6 hPa 0,0 l/m 0 min 0 min 0 W/m 15,8 km/h (3 Bft) 100,00 %
06.03.2018 04:10 4,6 C 5,0 C 3,3 C 88 % 0 lf 989,6 hPa 0,0 l/m 0 min 0 min 0 W/m 11,3 km/h (2 Bft) 93,48 %
06.03.2018 04:12 4,6 C 5,0 C 3,3 C 88 % 0 lf 989,6 hPa 0,0 l/m 0 min 0 min 0 W/m 13,5 km/h (3 Bft) 95,74 %
06.03.2018 04:14 4,6 C 5,0 C 3,3 C 88 % 0 lf 989,6 hPa 0,0 l/m 0 min 0 min 0 W/m 11,3 km/h (2 Bft) 95,74 %
06.03.2018 04:16 4,6 C 5,0 C 3,3 C 88 % 0 lf 989,5 hPa 0,0 l/m 0 min 0 min 0 W/m 11,3 km/h (2 Bft) 100,00 %
06.03.2018 04:18 4,6 C 5,0 C 3,3 C 87 % 0 lf 989,6 hPa 0,0 l/m 0 min 0 min 0 W/m 15,8 km/h (3 Bft) 100,00 %
06.03.2018 04:20 4,6 C 5,0 C 3,3 C 87 % 0 lf 989,6 hPa 0,0 l/m 0 min 0 min 0 W/m 9,0 km/h (2 Bft) 97,87 %
06.03.2018 04:22 4,7 C 5,0 C 3,3 C 87 % 0 lf 989,5 hPa 0,0 l/m 0 min 0 min 0 W/m 13,5 km/h (3 Bft) 97,83 %
06.03.2018 04:24 4,7 C 5,0 C 3,3 C 87 % 0 lf 989,5 hPa 0,0 l/m 0 min 0 min 0 W/m 13,5 km/h (3 Bft) 95,74 %
06.03.2018 04:26 4,7 C 5,0 C 3,3 C 87 % 0 lf 989,5 hPa 0,0 l/m 0 min 0 min 0 W/m 15,8 km/h (3 Bft) 100,00 %
06.03.2018 04:28 4,7 C 5,0 C 3,3 C 87 % 0 lf 989,5 hPa 0,0 l/m 0 min 0 min 0 W/m 15,8 km/h (3 Bft) 93,62 %
06.03.2018 04:30 4,7 C 5,0 C 3,3 C 87 % 0 lf 989,6 hPa 0,0 l/m 0 min 0 min 0 W/m 13,5 km/h (3 Bft) 93,62 %
06.03.2018 04:32 4,7 C 5,0 C 3,3 C 87 % 0 lf 989,5 hPa 0,0 l/m 0 min 0 min 0 W/m 11,3 km/h (2 Bft) 95,65 %
06.03.2018 04:34 4,7 C 5,0 C 3,3 C 87 % 0 lf 989,6 hPa 0,0 l/m 0 min 0 min 0 W/m 15,8 km/h (3 Bft) 95,74 %
06.03.2018 04:36 4,7 C 5,0 C 3,3 C 87 % 0 lf 989,6 hPa 0,0 l/m 0 min 0 min 0 W/m 11,3 km/h (2 Bft) 95,74 %
06.03.2018 04:38 4,7 C 5,0 C 3,3 C 87 % 0 lf 989,5 hPa 0,0 l/m 0 min 0 min 0 W/m 15,8 km/h (3 Bft) 97,87 %
06.03.2018 04:40 4,8 C 5,0 C 3,3 C 87 % 0 lf 989,6 hPa 0,0 l/m 0 min 0 min 0 W/m 15,8 km/h (3 Bft) 97,87 %
06.03.2018 04:42 4,8 C 5,0 C 3,3 C 87 % 0 lf 989,6 hPa 0,0 l/m 0 min 0 min 0 W/m 15,8 km/h (3 Bft) 95,74 %
06.03.2018 04:44 4,8 C 5,0 C 3,3 C 87 % 0 lf 989,6 hPa 0,0 l/m 0 min 0 min 0 W/m 18,0 km/h (3 Bft) 95,74 %
06.03.2018 04:46 4,8 C 5,0 C 3,3 C 87 % 0 lf 989,6 hPa 0,0 l/m 0 min 0 min 0 W/m 11,3 km/h (2 Bft) 95,65 %
06.03.2018 04:48 4,8 C 5,0 C 3,3 C 87 % 0 lf 989,6 hPa 0,0 l/m 0 min 0 min 0 W/m 18,0 km/h (3 Bft) 97,87 %
06.03.2018 04:50 4,8 C 5,0 C 3,3 C 87 % 0 lf 989,5 hPa 0,0 l/m 0 min 0 min 0 W/m 15,8 km/h (3 Bft) 95,74 %
06.03.2018 04:52 4,8 C 5,0 C 3,3 C 87 % 0 lf 989,5 hPa 0,0 l/m 0 min 0 min 0 W/m 15,8 km/h (3 Bft) 91,49 %
06.03.2018 04:54 4,8 C 5,0 C 3,3 C 86 % 0 lf 989,6 hPa 0,0 l/m 0 min 0 min 0 W/m 15,8 km/h (3 Bft) 100,00 %
06.03.2018 04:56 4,8 C 5,0 C 3,3 C 86 % 0 lf 989,5 hPa 0,0 l/m 0 min 0 min 0 W/m 18,0 km/h (3 Bft) 97,83 %
06.03.2018 04:58 4,8 C 5,0 C 3,3 C 86 % 0 lf 989,6 hPa 0,0 l/m 0 min 0 min 0 W/m 15,8 km/h (3 Bft) 97,87 %
06.03.2018 05:00 4,8 C 5,0 C 3,3 C 86 % 0 lf 989,6 hPa 0,0 l/m 0 min 0 min 0 W/m 18,0 km/h (3 Bft) 97,87 %
06.03.2018 05:02 4,8 C 5,0 C 3,3 C 86 % 0 lf 989,6 hPa 0,0 l/m 0 min 0 min 0 W/m 13,5 km/h (3 Bft) 95,74 %
06.03.2018 05:04 4,8 C 5,0 C 3,3 C 86 % 0 lf 989,5 hPa 0,0 l/m 0 min 0 min 0 W/m 13,5 km/h (3 Bft) 95,74 %
06.03.2018 05:06 4,8 C 5,0 C 3,3 C 86 % 0 lf 989,5 hPa 0,0 l/m 0 min 0 min 0 W/m 15,8 km/h (3 Bft) 97,87 %
06.03.2018 05:08 4,8 C 5,0 C 3,3 C 86 % 0 lf 989,5 hPa 0,0 l/m 0 min 0 min 0 W/m 15,8 km/h (3 Bft) 93,48 %
06.03.2018 05:10 4,8 C 5,0 C 3,3 C 86 % 0 lf 989,4 hPa 0,0 l/m 0 min 0 min 0 W/m 15,8 km/h (3 Bft) 93,62 %
06.03.2018 05:12 4,8 C 5,0 C 3,3 C 86 % 0 lf 989,5 hPa 0,0 l/m 0 min 0 min 0 W/m 20,3 km/h (4 Bft) 93,62 %
06.03.2018 05:14 4,9 C 5,0 C 3,3 C 86 % 0 lf 989,4 hPa 0,0 l/m 0 min 0 min 0 W/m 18,0 km/h (3 Bft) 97,87 %
06.03.2018 05:16 4,9 C 5,0 C 3,3 C 86 % 0 lf 989,4 hPa 0,0 l/m 0 min 0 min 0 W/m 15,8 km/h (3 Bft) 97,87 %
06.03.2018 05:18 4,9 C 5,0 C 3,3 C 86 % 0 lf 989,3 hPa 0,0 l/m 0 min 0 min 0 W/m 15,8 km/h (3 Bft) 97,87 %
06.03.2018 05:20 4,9 C 5,0 C 3,3 C 86 % 0 lf 989,4 hPa 0,0 l/m 0 min 0 min 0 W/m 15,8 km/h (3 Bft) 97,83 %
06.03.2018 05:22 4,9 C 5,0 C 3,3 C 86 % 0 lf 989,4 hPa 0,0 l/m 0 min 0 min 0 W/m 15,8 km/h (3 Bft) 97,87 %
06.03.2018 05:24 4,9 C 5,0 C 3,3 C 86 % 0 lf 989,3 hPa 0,0 l/m 0 min 0 min 0 W/m 18,0 km/h (3 Bft) 100,00 %
06.03.2018 05:26 4,9 C 5,0 C 3,3 C 86 % 0 lf 989,3 hPa 0,0 l/m 0 min 0 min 0 W/m 18,0 km/h (3 Bft) 97,87 %
06.03.2018 05:28 4,9 C 5,0 C 3,3 C 86 % 0 lf 989,3 hPa 0,0 l/m 0 min 0 min 0 W/m 20,3 km/h (4 Bft) 100,00 %
06.03.2018 05:30 4,9 C 5,0 C 3,3 C 86 % 0 lf 989,3 hPa 0,0 l/m 0 min 0 min 0 W/m 18,0 km/h (3 Bft) 100,00 %
06.03.2018 05:32 4,8 C 5,0 C 3,3 C 86 % 0 lf 989,3 hPa 0,0 l/m 0 min 0 min 0 W/m 13,5 km/h (3 Bft) 100,00 %
06.03.2018 05:34 4,9 C 5,0 C 3,3 C 86 % 0 lf 989,3 hPa 0,0 l/m 0 min 0 min 0 W/m 15,8 km/h (3 Bft) 95,74 %
06.03.2018 05:35 4,9 C 5,0 C 3,3 C 86 % 0 lf 989,3 hPa 0,0 l/m 0 min 0 min 0 W/m 15,8 km/h (3 Bft) 100,00 %
06.03.2018 05:38 4,9 C 5,0 C 3,3 C 86 % 0 lf 989,3 hPa 0,0 l/m 0 min 0 min 0 W/m 6,8 km/h (2 Bft) 100,00 %
06.03.2018 05:43 4,9 C 5,0 C 3,3 C 86 % 0 lf 989,3 hPa 0,0 l/m 0 min 0 min 0 W/m 15,8 km/h (3 Bft) 98,33 %
06.03.2018 05:48 4,9 C 5,0 C 3,3 C 86 % 0 lf 989,3 hPa 0,0 l/m 0 min 0 min 0 W/m 13,5 km/h (3 Bft) 100,00 %
06.03.2018 05:50 4,9 C 5,0 C 3,3 C 86 % 0 lf 989,3 hPa 0,0 l/m 0 min 0 min 0 W/m 13,5 km/h (3 Bft) 97,87 %
06.03.2018 05:52 4,9 C 4,4 C 3,3 C 86 % 0 lf 989,3 hPa 0,0 l/m 0 min 0 min 0 W/m 15,8 km/h (3 Bft) 95,74 %
06.03.2018 05:54 4,9 C 4,4 C 2,8 C 86 % 0 lf 989,3 hPa 0,0 l/m 0 min 0 min 0 W/m 11,3 km/h (2 Bft) 97,83 %
06.03.2018 05:56 4,8 C 4,4 C 2,8 C 86 % 0 lf 989,3 hPa 0,0 l/m 0 min 0 min 0 W/m 22,5 km/h (4 Bft) 95,74 %
06.03.2018 05:58 4,8 C 4,4 C 2,8 C 86 % 0 lf 989,3 hPa 0,0 l/m 0 min 0 min 0 W/m 13,5 km/h (3 Bft) 95,74 %
06.03.2018 06:00 4,8 C 4,4 C 2,8 C 86 % 0 lf 989,4 hPa 0,0 l/m 0 min 0 min 0 W/m 15,8 km/h (3 Bft) 97,87 %
06.03.2018 06:02 4,8 C 4,4 C 2,8 C 86 % 0 lf 989,3 hPa 0,0 l/m 0 min 0 min 0 W/m 15,8 km/h (3 Bft) 95,74 %
06.03.2018 06:04 4,8 C 4,4 C 2,8 C 86 % 0 lf 989,4 hPa 0,0 l/m 0 min 0 min 0 W/m 18,0 km/h (3 Bft) 97,87 %
06.03.2018 06:06 4,8 C 4,4 C 2,8 C 86 % 0 lf 989,4 hPa 0,0 l/m 0 min 0 min 0 W/m 18,0 km/h (3 Bft) 97,83 %
06.03.2018 06:08 4,8 C 4,4 C 2,8 C 86 % 0 lf 989,5 hPa 0,0 l/m 0 min 0 min 0 W/m 13,5 km/h (3 Bft) 95,74 %
06.03.2018 06:10 4,8 C 4,4 C 2,8 C 86 % 0 lf 989,4 hPa 0,0 l/m 0 min 0 min 0 W/m 9,0 km/h (2 Bft) 97,87 %
06.03.2018 06:12 4,8 C 4,4 C 2,8 C 86 % 0 lf 989,4 hPa 0,0 l/m 0 min 0 min 0 W/m 15,8 km/h (3 Bft) 95,74 %
06.03.2018 06:14 4,8 C 4,4 C 2,8 C 86 % 0 lf 989,4 hPa 0,0 l/m 0 min 0 min 0 W/m 13,5 km/h (3 Bft) 95,74 %
06.03.2018 06:16 4,7 C 4,4 C 2,8 C 86 % 0 lf 989,4 hPa 0,0 l/m 0 min 0 min 0 W/m 18,0 km/h (3 Bft) 95,74 %
06.03.2018 06:18 4,7 C 4,4 C 2,8 C 86 % 0 lf 989,4 hPa 0,0 l/m 0 min 0 min 0 W/m 13,5 km/h (3 Bft) 97,83 %
06.03.2018 06:20 4,7 C 4,4 C 2,8 C 86 % 0 lf 989,4 hPa 0,0 l/m 0 min 0 min 0 W/m 18,0 km/h (3 Bft) 91,49 %
06.03.2018 06:22 4,7 C 4,4 C 2,8 C 86 % 0 lf 989,4 hPa 0,0 l/m 0 min 0 min 0 W/m 13,5 km/h (3 Bft) 95,74 %
06.03.2018 06:24 4,7 C 4,4 C 2,2 C 86 % 0 lf 989,4 hPa 0,0 l/m 0 min 0 min 0 W/m 15,8 km/h (3 Bft) 93,62 %
06.03.2018 06:26 4,7 C 4,4 C 2,2 C 86 % 0 lf 989,4 hPa 0,0 l/m 0 min 0 min 0 W/m 13,5 km/h (3 Bft) 93,62 %
06.03.2018 06:28 4,7 C 4,4 C 2,2 C 86 % 0 lf 989,3 hPa 0,0 l/m 0 min 0 min 0 W/m 11,3 km/h (2 Bft) 95,74 %
06.03.2018 06:30 4,6 C 4,4 C 2,2 C 86 % 0 lf 989,3 hPa 0,0 l/m 0 min 0 min 0 W/m 13,5 km/h (3 Bft) 91,30 %
06.03.2018 06:32 4,6 C 4,4 C 2,8 C 86 % 0 lf 989,3 hPa 0,0 l/m 0 min 0 min 0 W/m 15,8 km/h (3 Bft) 93,75 %
06.03.2018 06:34 4,6 C 4,4 C 2,8 C 86 % 0 lf 989,3 hPa 0,0 l/m 0 min 0 min 0 W/m 18,0 km/h (3 Bft) 95,74 %
06.03.2018 06:36 4,6 C 4,4 C 2,8 C 86 % 0 lf 989,3 hPa 0,0 l/m 0 min 0 min 0 W/m 11,3 km/h (2 Bft) 93,62 %
06.03.2018 06:38 4,6 C 4,4 C 2,8 C 86 % 0 lf 989,3 hPa 0,0 l/m 0 min 0 min 0 W/m 18,0 km/h (3 Bft) 93,62 %
06.03.2018 06:40 4,6 C 4,4 C 2,8 C 86 % 0 lf 989,3 hPa 0,0 l/m 0 min 0 min 0 W/m 11,3 km/h (2 Bft) 95,56 %
06.03.2018 06:42 4,6 C 4,4 C 2,8 C 86 % 0 lf 989,3 hPa 0,0 l/m 0 min 0 min 0 W/m 15,8 km/h (3 Bft) 91,49 %
06.03.2018 06:44 4,6 C 4,4 C 2,8 C 86 % 0 lf 989,3 hPa 0,0 l/m 0 min 0 min 0 W/m 20,3 km/h (4 Bft) 93,62 %
06.03.2018 06:46 4,6 C 4,4 C 2,8 C 86 % 0 lf 989,4 hPa 0,0 l/m 0 min 0 min 0 W/m 11,3 km/h (2 Bft) 93,62 %
06.03.2018 06:48 4,6 C 4,4 C 2,8 C 86 % 0 lf 989,3 hPa 0,0 l/m 0 min 0 min 0 W/m 15,8 km/h (3 Bft) 93,62 %
06.03.2018 06:50 4,6 C 4,4 C 2,8 C 86 % 0 lf 989,4 hPa 0,0 l/m 0 min 0 min 0 W/m 22,5 km/h (4 Bft) 93,62 %
06.03.2018 06:52 4,6 C 4,4 C 2,8 C 86 % 0 lf 989,4 hPa 0,0 l/m 0 min 0 min 0 W/m 20,3 km/h (4 Bft) 95,83 %
06.03.2018 06:54 4,6 C 4,4 C 2,8 C 86 % 0 lf 989,4 hPa 0,0 l/m 0 min 0 min 0 W/m 20,3 km/h (4 Bft) 95,74 %
06.03.2018 06:56 4,6 C 4,4 C 2,8 C 86 % 0 lf 989,5 hPa 0,0 l/m 0 min 0 min 0 W/m 15,8 km/h (3 Bft) 93,48 %
06.03.2018 06:58 4,6 C 4,4 C 2,8 C 86 % 0 lf 989,4 hPa 0,0 l/m 0 min 0 min 0 W/m 13,5 km/h (3 Bft) 95,74 %
06.03.2018 07:00 4,6 C 4,4 C 2,8 C 86 % 0 lf 989,4 hPa 0,0 l/m 0 min 0 min 0 W/m 15,8 km/h (3 Bft) 93,62 %
06.03.2018 07:02 4,6 C 4,4 C 2,8 C 86 % 0 lf 989,5 hPa 0,0 l/m 0 min 0 min 0 W/m 18,0 km/h (3 Bft) 95,74 %
06.03.2018 07:04 4,6 C 4,4 C 2,8 C 86 % 0 lf 989,4 hPa 0,0 l/m 0 min 0 min 0 W/m 18,0 km/h (3 Bft) 97,87 %
06.03.2018 07:06 4,6 C 4,4 C 2,8 C 86 % 0 lf 989,4 hPa 0,0 l/m 0 min 0 min 0 W/m 18,0 km/h (3 Bft) 97,87 %
06.03.2018 07:08 4,6 C 4,4 C 3,3 C 86 % 0 lf 989,5 hPa 0,0 l/m 0 min 0 min 0 W/m 15,8 km/h (3 Bft) 97,83 %
06.03.2018 07:10 4,6 C 4,4 C 3,3 C 86 % 0 lf 989,5 hPa 0,0 l/m 0 min 0 min 0 W/m 15,8 km/h (3 Bft) 93,62 %
06.03.2018 07:12 4,6 C 4,4 C 3,3 C 86 % 0 lf 989,5 hPa 0,0 l/m 0 min 0 min 0 W/m 15,8 km/h (3 Bft) 97,87 %
06.03.2018 07:14 4,6 C 4,4 C 3,3 C 86 % 0 lf 989,5 hPa 0,0 l/m 0 min 0 min 2 W/m 15,8 km/h (3 Bft) 97,87 %
06.03.2018 07:16 4,6 C 4,4 C 3,3 C 86 % 0 lf 989,6 hPa 0,0 l/m 0 min 0 min 5 W/m 15,8 km/h (3 Bft) 97,87 %
06.03.2018 07:18 4,6 C 4,4 C 3,3 C 86 % 0 lf 989,6 hPa 0,0 l/m 0 min 0 min 5 W/m 18,0 km/h (3 Bft) 97,87 %
06.03.2018 07:20 4,7 C 4,4 C 3,3 C 86 % 0 lf 989,6 hPa 0,0 l/m 0 min 0 min 7 W/m 20,3 km/h (4 Bft) 95,65 %
06.03.2018 07:22 4,6 C 4,4 C 3,3 C 86 % 0 lf 989,6 hPa 0,0 l/m 0 min 0 min 7 W/m 15,8 km/h (3 Bft) 95,83 %
06.03.2018 07:24 4,7 C 4,4 C 3,3 C 86 % 0 lf 989,6 hPa 0,0 l/m 0 min 0 min 7 W/m 9,0 km/h (2 Bft) 94,29 %
06.03.2018 07:26 4,7 C 4,4 C 3,3 C 86 % 0 lf 989,7 hPa 0,0 l/m 0 min 0 min 8 W/m 15,8 km/h (3 Bft) 95,74 %
06.03.2018 07:28 4,7 C 4,4 C 3,3 C 86 % 0 lf 989,7 hPa 0,0 l/m 0 min 0 min 9 W/m 11,3 km/h (2 Bft) 95,74 %
06.03.2018 07:30 4,7 C 4,4 C 3,3 C 86 % 0 lf 989,7 hPa 0,0 l/m 0 min 0 min 10 W/m 18,0 km/h (3 Bft) 97,83 %
06.03.2018 07:32 4,7 C 4,4 C 3,3 C 86 % 0 lf 989,7 hPa 0,0 l/m 0 min 0 min 12 W/m 15,8 km/h (3 Bft) 95,74 %
06.03.2018 07:34 4,7 C 4,4 C 3,3 C 86 % 0 lf 989,7 hPa 0,0 l/m 0 min 0 min 14 W/m 15,8 km/h (3 Bft) 97,87 %
06.03.2018 07:36 4,7 C 4,4 C 3,3 C 86 % 0 lf 989,7 hPa 0,0 l/m 0 min 0 min 14 W/m 15,8 km/h (3 Bft) 97,87 %
06.03.2018 07:38 4,7 C 4,4 C 3,3 C 86 % 0 lf 989,7 hPa 0,0 l/m 0 min 0 min 16 W/m 18,0 km/h (3 Bft) 97,87 %
06.03.2018 07:40 4,7 C 4,4 C 3,3 C 86 % 0 lf 989,7 hPa 0,0 l/m 0 min 0 min 17 W/m 15,8 km/h (3 Bft) 97,87 %
06.03.2018 07:42 4,7 C 4,4 C 3,3 C 86 % 0 lf 989,7 hPa 0,0 l/m 0 min 0 min 18 W/m 15,8 km/h (3 Bft) 97,83 %
06.03.2018 07:44 4,7 C 4,4 C 3,3 C 86 % 0 lf 989,7 hPa 0,0 l/m 0 min 0 min 16 W/m 15,8 km/h (3 Bft) 97,87 %
06.03.2018 07:46 4,7 C 4,4 C 3,3 C 86 % 0 lf 989,7 hPa 0,0 l/m 0 min 0 min 16 W/m 15,8 km/h (3 Bft) 95,74 %
06.03.2018 07:48 4,7 C 4,4 C 3,3 C 86 % 0 lf 989,7 hPa 0,0 l/m 0 min 0 min 16 W/m 15,8 km/h (3 Bft) 95,65 %
06.03.2018 07:50 4,6 C 4,4 C 2,8 C 86 % 0 lf 989,7 hPa 0,0 l/m 0 min 0 min 18 W/m 15,8 km/h (3 Bft) 96,61 %
06.03.2018 07:52 4,6 C 4,4 C 2,8 C 86 % 0 lf 989,7 hPa 0,0 l/m 0 min 0 min 19 W/m 15,8 km/h (3 Bft) 97,22 %
06.03.2018 07:54 4,7 C 4,4 C 2,8 C 86 % 0 lf 989,6 hPa 0,0 l/m 0 min 0 min 24 W/m 15,8 km/h (3 Bft) 97,83 %
06.03.2018 07:56 4,6 C 4,4 C 2,8 C 86 % 0 lf 989,6 hPa 0,0 l/m 0 min 0 min 29 W/m 18,0 km/h (3 Bft) 95,74 %
06.03.2018 07:58 4,6 C 4,4 C 2,8 C 86 % 0 lf 989,7 hPa 0,0 l/m 0 min 0 min 31 W/m 20,3 km/h (4 Bft) 97,87 %
06.03.2018 08:00 4,6 C 4,4 C 2,8 C 86 % 0 lf 989,7 hPa 0,0 l/m 0 min 0 min 33 W/m 22,5 km/h (4 Bft) 97,87 %
06.03.2018 08:02 4,6 C 4,4 C 2,8 C 86 % 0 lf 989,7 hPa 0,0 l/m 0 min 0 min 35 W/m 20,3 km/h (4 Bft) 97,92 %
06.03.2018 08:04 4,6 C 4,4 C 2,8 C 86 % 0 lf 989,7 hPa 0,0 l/m 0 min 0 min 38 W/m 20,3 km/h (4 Bft) 97,87 %
06.03.2018 08:06 4,6 C 4,4 C 2,8 C 86 % 0 lf 989,7 hPa 0,0 l/m 0 min 0 min 44 W/m 15,8 km/h (3 Bft) 100,00 %
06.03.2018 08:08 4,6 C 4,4 C 2,8 C 86 % 0 lf 989,7 hPa 0,0 l/m 0 min 0 min 51 W/m 18,0 km/h (3 Bft) 93,62 %
06.03.2018 08:10 4,6 C 5,0 C 2,8 C 86 % 0 lf 989,7 hPa 0,0 l/m 0 min 0 min 58 W/m 18,0 km/h (3 Bft) 100,00 %
06.03.2018 08:12 4,6 C 5,0 C 3,3 C 86 % 0 lf 989,8 hPa 0,0 l/m 0 min 0 min 65 W/m 15,8 km/h (3 Bft) 100,00 %
06.03.2018 08:14 4,6 C 5,0 C 3,3 C 86 % 0 lf 989,8 hPa 0,0 l/m 0 min 0 min 72 W/m 18,0 km/h (3 Bft) 95,74 %
06.03.2018 08:16 4,6 C 5,0 C 3,3 C 86 % 0 lf 989,8 hPa 0,0 l/m 2 min 0 min 83 W/m 18,0 km/h (3 Bft) 100,00 %
06.03.2018 08:18 4,6 C 5,0 C 3,3 C 86 % 0 lf 989,8 hPa 0,0 l/m 2 min 0 min 89 W/m 20,3 km/h (4 Bft) 93,62 %
06.03.2018 08:20 4,6 C 5,6 C 3,3 C 86 % 0 lf 989,7 hPa 0,0 l/m 2 min 0 min 90 W/m 15,8 km/h (3 Bft) 100,00 %
06.03.2018 08:22 4,6 C 5,6 C 3,9 C 86 % 0 lf 989,7 hPa 0,0 l/m 2 min 0 min 92 W/m 15,8 km/h (3 Bft) 94,29 %
06.03.2018 08:24 4,6 C 5,6 C 3,9 C 86 % 0 lf 989,7 hPa 0,0 l/m 2 min 0 min 96 W/m 18,0 km/h (3 Bft) 98,00 %
06.03.2018 08:26 4,6 C 5,6 C 3,9 C 86 % 0 lf 989,6 hPa 0,0 l/m 2 min 0 min 104 W/m 18,0 km/h (3 Bft) 100,00 %
06.03.2018 08:28 4,7 C 5,6 C 3,9 C 86 % 0 lf 989,6 hPa 0,0 l/m 2 min 0 min 110 W/m 18,0 km/h (3 Bft) 97,87 %
06.03.2018 08:30 4,7 C 5,6 C 3,9 C 86 % 0 lf 989,6 hPa 0,0 l/m 2 min 0 min 124 W/m 15,8 km/h (3 Bft) 97,87 %
06.03.2018 08:32 4,7 C 5,6 C 3,9 C 86 % 0 lf 989,6 hPa 0,0 l/m 2 min 0 min 112 W/m 20,3 km/h (4 Bft) 97,67 %
06.03.2018 08:34 4,7 C 5,6 C 3,9 C 86 % 0 lf 989,6 hPa 0,0 l/m 0 min 0 min 98 W/m 18,0 km/h (3 Bft) 95,74 %
06.03.2018 08:36 4,7 C 5,6 C 3,9 C 86 % 0 lf 989,6 hPa 0,0 l/m 0 min 0 min 96 W/m 18,0 km/h (3 Bft) 97,87 %
06.03.2018 08:38 4,7 C 5,6 C 3,9 C 86 % 0 lf 989,6 hPa 0,0 l/m 0 min 0 min 98 W/m 18,0 km/h (3 Bft) 95,74 %
06.03.2018 08:40 4,8 C 5,6 C 3,9 C 86 % 0 lf 989,6 hPa 0,0 l/m 0 min 0 min 103 W/m 15,8 km/h (3 Bft) 95,65 %
06.03.2018 08:42 4,8 C 5,6 C 3,9 C 86 % 0 lf 989,6 hPa 0,0 l/m 0 min 0 min 109 W/m 18,0 km/h (3 Bft) 95,74 %
06.03.2018 08:44 4,8 C 5,6 C 4,4 C 86 % 0 lf 989,6 hPa 0,0 l/m 0 min 0 min 112 W/m 18,0 km/h (3 Bft) 97,87 %
06.03.2018 08:46 4,8 C 6,1 C 4,4 C 86 % 0 lf 989,7 hPa 0,0 l/m 0 min 0 min 114 W/m 15,8 km/h (3 Bft) 95,74 %
06.03.2018 08:48 4,9 C 6,1 C 4,4 C 86 % 0 lf 989,7 hPa 0,0 l/m 0 min 0 min 118 W/m 15,8 km/h (3 Bft) 97,87 %
06.03.2018 08:50 4,9 C 6,1 C 4,4 C 86 % 0 lf 989,7 hPa 0,0 l/m 0 min 0 min 121 W/m 15,8 km/h (3 Bft) 97,87 %
06.03.2018 08:52 4,9 C 6,1 C 4,4 C 86 % 0 lf 989,7 hPa 0,0 l/m 2 min 0 min 128 W/m 18,0 km/h (3 Bft) 97,83 %
06.03.2018 08:54 4,9 C 6,1 C 4,4 C 86 % 0 lf 989,7 hPa 0,0 l/m 2 min 0 min 133 W/m 15,8 km/h (3 Bft) 97,87 %
06.03.2018 08:56 5,0 C 6,7 C 5,0 C 86 % 0 lf 989,7 hPa 0,0 l/m 2 min 0 min 160 W/m 18,0 km/h (3 Bft) 95,74 %
06.03.2018 08:58 5,0 C 7,2 C 5,0 C 86 % 0 lf 989,8 hPa 0,0 l/m 2 min 0 min 183 W/m 15,8 km/h (3 Bft) 100,00 %
06.03.2018 09:00 5,1 C 8,9 C 5,6 C 86 % 0 lf 989,7 hPa 0,0 l/m 2 min 0 min 271 W/m 15,8 km/h (3 Bft) 97,87 %
06.03.2018 09:02 5,2 C 8,9 C 5,6 C 86 % 0 lf 989,7 hPa 0,0 l/m 2 min 0 min 221 W/m 13,5 km/h (3 Bft) 100,00 %
06.03.2018 09:04 5,2 C 7,8 C 5,6 C 86 % 0 lf 989,7 hPa 0,0 l/m 2 min 0 min 169 W/m 20,3 km/h (4 Bft) 100,00 %
06.03.2018 09:06 5,3 C 7,2 C 5,6 C 86 % 0 lf 989,7 hPa 0,0 l/m 2 min 0 min 164 W/m 18,0 km/h (3 Bft) 100,00 %
06.03.2018 09:08 5,3 C 7,2 C 5,6 C 86 % 0 lf 989,6 hPa 0,0 l/m 2 min 0 min 168 W/m 22,5 km/h (4 Bft) 100,00 %
06.03.2018 09:10 5,4 C 7,2 C 5,6 C 86 % 0 lf 989,7 hPa 0,0 l/m 2 min 0 min 189 W/m 22,5 km/h (4 Bft) 97,87 %
06.03.2018 09:12 5,4 C 7,8 C 6,1 C 85 % 0 lf 989,7 hPa 0,0 l/m 2 min 0 min 280 W/m 22,5 km/h (4 Bft) 97,87 %
06.03.2018 09:14 5,5 C 8,9 C 6,7 C 85 % 0 lf 989,7 hPa 0,0 l/m 2 min 0 min 326 W/m 22,5 km/h (4 Bft) 100,00 %
06.03.2018 09:16 5,6 C 8,3 C 6,7 C 85 % 0 lf 989,7 hPa 0,0 l/m 2 min 0 min 284 W/m 20,3 km/h (4 Bft) 97,83 %
06.03.2018 09:18 5,7 C 8,9 C 7,2 C 85 % 0 lf 989,7 hPa 0,0 l/m 2 min 0 min 299 W/m 24,8 km/h (4 Bft) 97,87 %
06.03.2018 09:20 5,8 C 8,9 C 7,2 C 84 % 0 lf 989,8 hPa 0,0 l/m 2 min 0 min 311 W/m 22,5 km/h (4 Bft) 100,00 %
06.03.2018 09:22 5,9 C 8,9 C 7,2 C 84 % 0 lf 989,8 hPa 0,0 l/m 2 min 0 min 268 W/m 20,3 km/h (4 Bft) 100,00 %
06.03.2018 09:24 6,0 C 8,9 C 7,2 C 84 % 0 lf 989,8 hPa 0,0 l/m 2 min 0 min 288 W/m 18,0 km/h (3 Bft) 95,74 %
06.03.2018 09:26 6,1 C 8,3 C 7,2 C 84 % 0 lf 989,8 hPa 0,0 l/m 2 min 0 min 223 W/m 22,5 km/h (4 Bft) 95,65 %
06.03.2018 09:28 6,2 C 8,3 C 7,2 C 84 % 0 lf 989,8 hPa 0,0 l/m 2 min 0 min 235 W/m 22,5 km/h (4 Bft) 95,74 %
06.03.2018 09:30 6,2 C 8,3 C 7,2 C 83 % 0 lf 989,8 hPa 0,0 l/m 2 min 0 min 239 W/m 20,3 km/h (4 Bft) 93,62 %
06.03.2018 09:32 6,3 C 8,3 C 7,2 C 83 % 0 lf 989,7 hPa 0,0 l/m 2 min 0 min 243 W/m 20,3 km/h (4 Bft) 93,62 %
06.03.2018 09:34 6,3 C 8,3 C 7,2 C 83 % 0 lf 989,8 hPa 0,0 l/m 2 min 0 min 220 W/m 15,8 km/h (3 Bft) 91,49 %
06.03.2018 09:36 6,4 C 8,3 C 7,2 C 83 % 0 lf 989,7 hPa 0,0 l/m 2 min 0 min 236 W/m 24,8 km/h (4 Bft) 93,62 %
06.03.2018 09:38 6,4 C 8,3 C 7,2 C 82 % 0 lf 989,7 hPa 0,0 l/m 2 min 0 min 245 W/m 20,3 km/h (4 Bft) 93,48 %
06.03.2018 09:40 6,4 C 8,9 C 7,2 C 82 % 0 lf 989,7 hPa 0,0 l/m 2 min 0 min 300 W/m 24,8 km/h (4 Bft) 95,74 %
06.03.2018 09:42 6,4 C 8,9 C 7,2 C 82 % 0 lf 989,7 hPa 0,0 l/m 2 min 0 min 285 W/m 22,5 km/h (4 Bft) 95,83 %
06.03.2018 09:44 6,5 C 9,4 C 7,8 C 82 % 0 lf 989,6 hPa 0,0 l/m 2 min 0 min 297 W/m 18,0 km/h (3 Bft) 97,87 %
06.03.2018 09:46 6,6 C 10,0 C 7,8 C 82 % 0 lf 989,7 hPa 0,0 l/m 2 min 0 min 331 W/m 22,5 km/h (4 Bft) 93,75 %
06.03.2018 09:48 6,7 C 10,6 C 8,3 C 82 % 0 lf 989,7 hPa 0,0 l/m 2 min 0 min 407 W/m 22,5 km/h (4 Bft) 97,87 %
06.03.2018 09:50 6,7 C 10,6 C 8,9 C 82 % 0 lf 989,7 hPa 0,0 l/m 2 min 0 min 422 W/m 24,8 km/h (4 Bft) 93,10 %
06.03.2018 09:52 6,8 C 10,0 C 8,9 C 82 % 0 lf 989,7 hPa 0,0 l/m 2 min 0 min 404 W/m 24,8 km/h (4 Bft) 100,00 %
06.03.2018 09:54 6,9 C 10,0 C 8,9 C 81 % 0 lf 989,6 hPa 0,0 l/m 2 min 0 min 317 W/m 22,5 km/h (4 Bft) 93,62 %
06.03.2018 09:56 6,9 C 8,9 C 8,3 C 81 % 0 lf 989,6 hPa 0,0 l/m 2 min 0 min 247 W/m 20,3 km/h (4 Bft) 93,62 %
06.03.2018 09:58 6,9 C 8,3 C 7,8 C 80 % 0 lf 989,6 hPa 0,0 l/m 2 min 0 min 226 W/m 22,5 km/h (4 Bft) 93,62 %
06.03.2018 10:00 6,9 C 8,3 C 7,8 C 80 % 0 lf 989,6 hPa 0,0 l/m 2 min 0 min 239 W/m 20,3 km/h (4 Bft) 93,62 %
06.03.2018 10:02 6,9 C 8,9 C 7,8 C 80 % 0 lf 989,6 hPa 0,0 l/m 2 min 0 min 277 W/m 20,3 km/h (4 Bft) 93,48 %
06.03.2018 10:04 7,0 C 9,4 C 8,3 C 81 % 0 lf 989,6 hPa 0,0 l/m 2 min 0 min 303 W/m 18,0 km/h (3 Bft) 93,62 %
06.03.2018 10:06 7,0 C 9,4 C 8,9 C 81 % 0 lf 989,7 hPa 0,0 l/m 2 min 0 min 330 W/m 15,8 km/h (3 Bft) 87,23 %
06.03.2018 10:08 7,1 C 9,4 C 8,9 C 81 % 0 lf 989,6 hPa 0,0 l/m 2 min 0 min 274 W/m 18,0 km/h (3 Bft) 85,11 %
06.03.2018 10:10 7,1 C 9,4 C 8,9 C 80 % 0 lf 989,7 hPa 0,0 l/m 2 min 0 min 271 W/m 20,3 km/h (4 Bft) 93,62 %
06.03.2018 10:12 7,1 C 9,4 C 8,9 C 80 % 0 lf 989,7 hPa 0,0 l/m 2 min 0 min 291 W/m 20,3 km/h (4 Bft) 93,48 %
06.03.2018 10:14 7,2 C 9,4 C 8,3 C 80 % 0 lf 989,8 hPa 0,0 l/m 2 min 0 min 240 W/m 20,3 km/h (4 Bft) 93,62 %
06.03.2018 10:16 7,2 C 9,4 C 8,3 C 80 % 0 lf 989,7 hPa 0,0 l/m 2 min 0 min 237 W/m 13,5 km/h (3 Bft) 95,74 %
06.03.2018 10:18 7,2 C 9,4 C 8,3 C 80 % 0 lf 989,7 hPa 0,0 l/m 2 min 0 min 222 W/m 18,0 km/h (3 Bft) 93,62 %
06.03.2018 10:20 7,3 C 9,4 C 8,3 C 80 % 0 lf 989,7 hPa 0,0 l/m 2 min 0 min 225 W/m 20,3 km/h (4 Bft) 96,23 %
06.03.2018 10:22 7,3 C 8,9 C 7,8 C 80 % 0 lf 989,7 hPa 0,0 l/m 2 min 0 min 215 W/m 18,0 km/h (3 Bft) 93,62 %
06.03.2018 10:24 7,3 C 8,3 C 7,8 C 80 % 0 lf 989,7 hPa 0,0 l/m 0 min 0 min 212 W/m 20,3 km/h (4 Bft) 89,36 %
06.03.2018 10:26 7,3 C 8,9 C 7,8 C 80 % 0 lf 989,8 hPa 0,0 l/m 0 min 0 min 207 W/m 15,8 km/h (3 Bft) 93,48 %
06.03.2018 10:28 7,3 C 8,9 C 7,8 C 80 % 0 lf 989,7 hPa 0,0 l/m 2 min 0 min 254 W/m 18,0 km/h (3 Bft) 97,87 %
06.03.2018 10:30 7,4 C 8,9 C 7,8 C 80 % 0 lf 989,8 hPa 0,0 l/m 2 min 0 min 237 W/m 15,8 km/h (3 Bft) 97,87 %
06.03.2018 10:32 7,4 C 10,0 C 8,3 C 80 % 0 lf 989,8 hPa 0,0 l/m 2 min 0 min 268 W/m 18,0 km/h (3 Bft) 97,87 %
06.03.2018 10:34 7,4 C 11,1 C 8,9 C 80 % 0 lf 989,8 hPa 0,0 l/m 2 min 0 min 283 W/m 18,0 km/h (3 Bft) 93,62 %
06.03.2018 10:38 7,6 C 12,8 C 10,6 C 80 % 0 lf 989,8 hPa 0,0 l/m 4 min 0 min 499 W/m 18,0 km/h (3 Bft) 95,70 %
06.03.2018 10:40 7,7 C 15,0 C 11,7 C 80 % 0 lf 989,7 hPa 0,0 l/m 2 min 0 min 460 W/m 18,0 km/h (3 Bft) 98,00 %
06.03.2018 10:42 7,8 C 12,2 C 10,6 C 80 % 0 lf 989,8 hPa 0,0 l/m 2 min 0 min 374 W/m 18,0 km/h (3 Bft) 97,87 %
06.03.2018 10:44 7,9 C 13,3 C 10,6 C 80 % 0 lf 989,8 hPa 0,0 l/m 2 min 0 min 267 W/m 18,0 km/h (3 Bft) 97,87 %
06.03.2018 10:46 7,9 C 13,3 C 10,6 C 80 % 0 lf 989,9 hPa 0,0 l/m 2 min 0 min 425 W/m 20,3 km/h (4 Bft) 97,87 %
06.03.2018 10:48 8,1 C 12,2 C 10,6 C 79 % 0 lf 989,9 hPa 0,0 l/m 2 min 0 min 323 W/m 18,0 km/h (3 Bft) 95,74 %
06.03.2018 10:50 8,2 C 12,8 C 10,0 C 79 % 0 lf 989,8 hPa 0,0 l/m 2 min 0 min 300 W/m 15,8 km/h (3 Bft) 95,65 %
06.03.2018 10:52 8,2 C 11,7 C 10,0 C 78 % 0 lf 989,8 hPa 0,0 l/m 2 min 0 min 266 W/m 15,8 km/h (3 Bft) 100,00 %
06.03.2018 10:54 8,3 C 11,1 C 9,4 C 78 % 0 lf 989,9 hPa 0,0 l/m 2 min 0 min 257 W/m 15,8 km/h (3 Bft) 97,87 %
06.03.2018 10:56 8,3 C 11,1 C 9,4 C 78 % 0 lf 989,8 hPa 0,0 l/m 2 min 0 min 294 W/m 15,8 km/h (3 Bft) 97,87 %
06.03.2018 10:58 8,4 C 11,1 C 9,4 C 77 % 0 lf 989,8 hPa 0,0 l/m 2 min 0 min 306 W/m 15,8 km/h (3 Bft) 95,74 %
06.03.2018 11:00 8,4 C 11,7 C 10,0 C 77 % 0 lf 989,9 hPa 0,0 l/m 2 min 0 min 281 W/m 11,3 km/h (2 Bft) 93,62 %
06.03.2018 11:02 8,5 C 11,7 C 10,0 C 78 % 0 lf 989,8 hPa 0,0 l/m 2 min 0 min 283 W/m 11,3 km/h (2 Bft) 97,87 %
06.03.2018 11:04 8,5 C 13,3 C 10,6 C 78 % 0 lf 989,8 hPa 0,0 l/m 2 min 0 min 355 W/m 13,5 km/h (3 Bft) 97,83 %
06.03.2018 11:06 8,6 C 13,9 C 11,1 C 78 % 0 lf 989,8 hPa 0,0 l/m 2 min 0 min 410 W/m 11,3 km/h (2 Bft) 97,87 %
06.03.2018 11:08 8,7 C 13,3 C 11,7 C 77 % 0 lf 989,8 hPa 0,0 l/m 2 min 0 min 407 W/m 11,3 km/h (2 Bft) 97,87 %
06.03.2018 11:10 8,8 C 12,2 C 11,1 C 77 % 0 lf 989,8 hPa 0,0 l/m 2 min 0 min 297 W/m 13,5 km/h (3 Bft) 97,87 %
06.03.2018 11:12 8,8 C 13,3 C 11,1 C 77 % 0 lf 989,8 hPa 0,0 l/m 2 min 0 min 326 W/m 11,3 km/h (2 Bft) 97,87 %
06.03.2018 11:14 8,9 C 13,9 C 11,1 C 77 % 0 lf 989,8 hPa 0,0 l/m 2 min 0 min 293 W/m 11,3 km/h (2 Bft) 97,87 %
06.03.2018 11:16 9,0 C 13,9 C 11,1 C 77 % 0 lf 989,9 hPa 0,0 l/m 2 min 0 min 303 W/m 9,0 km/h (2 Bft) 97,83 %
06.03.2018 11:18 9,1 C 13,9 C 11,1 C 77 % 0 lf 989,8 hPa 0,0 l/m 2 min 0 min 330 W/m 6,8 km/h (2 Bft) 97,87 %
06.03.2018 11:20 9,2 C 13,9 C 11,7 C 77 % 0 lf 989,9 hPa 0,0 l/m 2 min 0 min 389 W/m 15,8 km/h (3 Bft) 96,61 %
06.03.2018 11:22 9,2 C 13,3 C 11,1 C 76 % 0 lf 989,9 hPa 0,0 l/m 2 min 0 min 345 W/m 15,8 km/h (3 Bft) 97,14 %
06.03.2018 11:24 9,3 C 12,2 C 11,1 C 76 % 0 lf 989,9 hPa 0,0 l/m 2 min 0 min 327 W/m 13,5 km/h (3 Bft) 97,87 %
06.03.2018 11:26 9,3 C 12,2 C 11,1 C 76 % 0 lf 990,0 hPa 0,0 l/m 2 min 0 min 309 W/m 11,3 km/h (2 Bft) 97,87 %
06.03.2018 11:28 9,4 C 12,2 C 11,1 C 76 % 0 lf 989,9 hPa 0,0 l/m 2 min 0 min 292 W/m 11,3 km/h (2 Bft) 97,83 %
06.03.2018 11:30 9,4 C 12,2 C 11,1 C 76 % 0 lf 989,9 hPa 0,0 l/m 2 min 0 min 287 W/m 11,3 km/h (2 Bft) 97,87 %
06.03.2018 11:32 9,5 C 11,7 C 10,6 C 76 % 0 lf 989,8 hPa 0,0 l/m 2 min 0 min 285 W/m 9,0 km/h (2 Bft) 100,00 %
06.03.2018 11:34 9,6 C 12,2 C 10,6 C 76 % 0 lf 989,9 hPa 0,0 l/m 2 min 0 min 290 W/m 9,0 km/h (2 Bft) 95,74 %
06.03.2018 11:36 9,6 C 12,2 C 10,6 C 75 % 0 lf 989,9 hPa 0,0 l/m 2 min 0 min 298 W/m 11,3 km/h (2 Bft) 100,00 %
06.03.2018 11:38 9,6 C 12,2 C 11,1 C 76 % 0 lf 989,9 hPa 0,0 l/m 2 min 0 min 306 W/m 9,0 km/h (2 Bft) 100,00 %
06.03.2018 11:40 9,7 C 12,8 C 11,7 C 76 % 0 lf 989,8 hPa 0,0 l/m 2 min 0 min 319 W/m 15,8 km/h (3 Bft) 100,00 %
06.03.2018 11:42 9,7 C 12,2 C 11,7 C 75 % 0 lf 989,8 hPa 0,0 l/m 2 min 0 min 348 W/m 11,3 km/h (2 Bft) 100,00 %
06.03.2018 11:44 9,8 C 13,3 C 12,2 C 75 % 0 lf 989,8 hPa 0,0 l/m 2 min 0 min 376 W/m 11,3 km/h (2 Bft) 97,87 %
06.03.2018 11:46 9,8 C 12,8 C 12,2 C 75 % 0 lf 989,8 hPa 0,0 l/m 2 min 0 min 334 W/m 11,3 km/h (2 Bft) 95,74 %
06.03.2018 11:48 9,9 C 13,3 C 12,2 C 75 % 0 lf 989,8 hPa 0,0 l/m 2 min 0 min 308 W/m 9,0 km/h (2 Bft) 100,00 %
06.03.2018 11:50 9,9 C 13,9 C 11,7 C 75 % 0 lf 989,8 hPa 0,0 l/m 2 min 0 min 286 W/m 9,0 km/h (2 Bft) 100,00 %
06.03.2018 11:52 10,1 C 14,4 C 11,7 C 75 % 0 lf 989,8 hPa 0,0 l/m 2 min 0 min 289 W/m 9,0 km/h (2 Bft) 94,29 %
06.03.2018 11:54 10,1 C 14,4 C 11,7 C 75 % 0 lf 989,8 hPa 0,0 l/m 2 min 0 min 292 W/m 11,3 km/h (2 Bft) 100,00 %
06.03.2018 11:56 10,2 C 13,9 C 11,7 C 74 % 0 lf 989,8 hPa 0,0 l/m 2 min 0 min 296 W/m 15,8 km/h (3 Bft) 97,87 %
06.03.2018 11:58 10,3 C 13,3 C 11,7 C 74 % 0 lf 989,8 hPa 0,0 l/m 2 min 0 min 306 W/m 18,0 km/h (3 Bft) 100,00 %
06.03.2018 12:00 10,3 C 13,9 C 11,7 C 74 % 0 lf 989,8 hPa 0,0 l/m 2 min 0 min 322 W/m 13,5 km/h (3 Bft) 100,00 %
06.03.2018 12:02 10,4 C 13,9 C 11,7 C 74 % 0 lf 989,8 hPa 0,0 l/m 2 min 0 min 339 W/m 13,5 km/h (3 Bft) 100,00 %
06.03.2018 12:04 10,4 C 14,4 C 11,7 C 74 % 0 lf 989,8 hPa 0,0 l/m 2 min 0 min 353 W/m 15,8 km/h (3 Bft) 100,00 %
06.03.2018 12:06 10,5 C 14,4 C 11,7 C 74 % 0 lf 989,8 hPa 0,0 l/m 2 min 0 min 361 W/m 13,5 km/h (3 Bft) 97,92 %
06.03.2018 12:08 10,6 C 15,0 C 11,7 C 74 % 0 lf 989,8 hPa 0,0 l/m 2 min 0 min 354 W/m 15,8 km/h (3 Bft) 100,00 %
06.03.2018 12:10 10,7 C 15,0 C 11,7 C 74 % 0 lf 989,8 hPa 0,0 l/m 2 min 0 min 352 W/m 13,5 km/h (3 Bft) 97,87 %
06.03.2018 12:12 10,7 C 15,0 C 12,2 C 74 % 0 lf 989,8 hPa 0,0 l/m 2 min 0 min 354 W/m 15,8 km/h (3 Bft) 93,62 %
06.03.2018 12:14 10,8 C 14,4 C 12,2 C 74 % 0 lf 989,7 hPa 0,0 l/m 2 min 0 min 356 W/m 13,5 km/h (3 Bft) 97,83 %
06.03.2018 12:16 10,8 C 15,0 C 12,2 C 74 % 0 lf 989,7 hPa 0,0 l/m 2 min 0 min 369 W/m 15,8 km/h (3 Bft) 97,87 %
06.03.2018 12:18 10,8 C 15,6 C 12,2 C 73 % 0 lf 989,7 hPa 0,0 l/m 2 min 0 min 367 W/m 13,5 km/h (3 Bft) 100,00 %
06.03.2018 12:20 10,9 C 16,1 C 12,2 C 73 % 0 lf 989,7 hPa 0,0 l/m 2 min 0 min 362 W/m 15,8 km/h (3 Bft) 98,31 %
06.03.2018 12:22 10,9 C 16,1 C 12,2 C 74 % 0 lf 989,8 hPa 0,0 l/m 2 min 0 min 358 W/m 13,5 km/h (3 Bft) 97,14 %
06.03.2018 12:24 11,0 C 15,6 C 12,8 C 74 % 0 lf 989,8 hPa 0,0 l/m 2 min 0 min 354 W/m 15,8 km/h (3 Bft) 95,74 %
06.03.2018 12:26 11,1 C 15,0 C 12,2 C 73 % 0 lf 989,8 hPa 0,0 l/m 2 min 0 min 359 W/m 20,3 km/h (4 Bft) 95,65 %
06.03.2018 12:28 11,1 C 14,4 C 11,7 C 73 % 0 lf 989,7 hPa 0,0 l/m 2 min 0 min 363 W/m 13,5 km/h (3 Bft) 95,74 %
06.03.2018 12:30 11,1 C 14,4 C 12,2 C 73 % 0 lf 989,7 hPa 0,0 l/m 2 min 0 min 368 W/m 15,8 km/h (3 Bft) 95,74 %
06.03.2018 12:32 11,1 C 15,0 C 12,2 C 73 % 0 lf 989,6 hPa 0,0 l/m 2 min 0 min 361 W/m 13,5 km/h (3 Bft) 95,74 %
06.03.2018 12:34 11,2 C 15,6 C 12,2 C 73 % 0 lf 989,7 hPa 0,0 l/m 2 min 0 min 361 W/m 13,5 km/h (3 Bft) 95,74 %
06.03.2018 12:36 11,2 C 15,6 C 12,2 C 73 % 0 lf 989,7 hPa 0,0 l/m 2 min 0 min 356 W/m 11,3 km/h (2 Bft) 95,65 %
06.03.2018 12:38 11,2 C 15,6 C 12,2 C 73 % 0 lf 989,7 hPa 0,0 l/m 2 min 0 min 347 W/m 11,3 km/h (2 Bft) 93,62 %
06.03.2018 12:40 11,3 C 16,1 C 12,2 C 73 % 0 lf 989,8 hPa 0,0 l/m 2 min 0 min 339 W/m 15,8 km/h (3 Bft) 93,62 %
06.03.2018 12:42 11,3 C 15,0 C 12,2 C 73 % 0 lf 989,7 hPa 0,0 l/m 2 min 0 min 340 W/m 15,8 km/h (3 Bft) 91,49 %
06.03.2018 12:44 11,3 C 14,4 C 12,2 C 73 % 0 lf 989,8 hPa 0,0 l/m 2 min 0 min 333 W/m 18,0 km/h (3 Bft) 97,87 %
06.03.2018 12:46 11,3 C 14,4 C 12,2 C 73 % 0 lf 989,8 hPa 0,0 l/m 2 min 0 min 330 W/m 15,8 km/h (3 Bft) 95,74 %
06.03.2018 12:48 11,4 C 15,0 C 12,2 C 73 % 0 lf 989,8 hPa 0,0 l/m 2 min 0 min 342 W/m 9,0 km/h (2 Bft) 95,65 %
06.03.2018 12:50 11,4 C 15,6 C 12,2 C 73 % 0 lf 989,8 hPa 0,0 l/m 2 min 0 min 340 W/m 13,5 km/h (3 Bft) 96,61 %
06.03.2018 12:52 11,4 C 15,6 C 12,2 C 73 % 0 lf 989,8 hPa 0,0 l/m 2 min 0 min 330 W/m 11,3 km/h (2 Bft) 94,29 %
06.03.2018 12:54 11,5 C 15,6 C 12,2 C 73 % 0 lf 989,7 hPa 0,0 l/m 2 min 0 min 338 W/m 11,3 km/h (2 Bft) 97,87 %
06.03.2018 12:56 11,5 C 16,1 C 12,2 C 73 % 0 lf 989,8 hPa 0,0 l/m 2 min 0 min 392 W/m 13,5 km/h (3 Bft) 97,87 %
06.03.2018 12:58 11,6 C 16,1 C 12,2 C 73 % 0 lf 989,8 hPa 0,0 l/m 2 min 0 min 386 W/m 15,8 km/h (3 Bft) 50,00 %
06.03.2018 13:00 11,6 C 16,7 C 12,2 C 74 % 0 lf 989,8 hPa 0,0 l/m 2 min 0 min 345 W/m 11,3 km/h (2 Bft) 97,83 %
06.03.2018 13:02 11,6 C 16,7 C 12,8 C 74 % 0 lf 989,7 hPa 0,0 l/m 2 min 0 min 338 W/m 15,8 km/h (3 Bft) 93,62 %
06.03.2018 13:04 11,7 C 16,1 C 12,2 C 74 % 0 lf 989,8 hPa 0,0 l/m 2 min 0 min 321 W/m 15,8 km/h (3 Bft) 97,87 %
06.03.2018 13:08 11,7 C 15,0 C 12,2 C 73 % 0 lf 989,7 hPa 0,0 l/m 4 min 0 min 324 W/m 18,0 km/h (3 Bft) 95,74 %
06.03.2018 13:10 11,7 C 15,0 C 12,2 C 73 % 0 lf 989,7 hPa 0,0 l/m 2 min 0 min 306 W/m 9,0 km/h (2 Bft) 94,12 %
06.03.2018 13:12 11,7 C 15,6 C 12,2 C 74 % 0 lf 989,7 hPa 0,0 l/m 2 min 0 min 323 W/m 15,8 km/h (3 Bft) 95,65 %
06.03.2018 13:14 11,7 C 15,6 C 12,2 C 74 % 0 lf 989,6 hPa 0,0 l/m 2 min 0 min 331 W/m 11,3 km/h (2 Bft) 97,87 %
06.03.2018 13:16 11,7 C 15,6 C 12,2 C 73 % 0 lf 989,7 hPa 0,0 l/m 2 min 0 min 323 W/m 15,8 km/h (3 Bft) 97,87 %
06.03.2018 13:18 11,7 C 15,6 C 12,2 C 73 % 0 lf 989,7 hPa 0,0 l/m 2 min 0 min 331 W/m 13,5 km/h (3 Bft) 97,87 %
06.03.2018 13:20 11,7 C 15,6 C 12,2 C 73 % 0 lf 989,7 hPa 0,0 l/m 2 min 0 min 346 W/m 13,5 km/h (3 Bft) 95,74 %
06.03.2018 13:22 11,7 C 15,6 C 12,2 C 73 % 0 lf 989,7 hPa 0,0 l/m 2 min 0 min 328 W/m 13,5 km/h (3 Bft) 95,65 %
06.03.2018 13:24 11,7 C 14,4 C 12,2 C 73 % 0 lf 989,7 hPa 0,0 l/m 2 min 0 min 319 W/m 9,0 km/h (2 Bft) 97,87 %
06.03.2018 13:26 11,7 C 15,0 C 12,2 C 73 % 0 lf 989,8 hPa 0,0 l/m 2 min 0 min 310 W/m 13,5 km/h (3 Bft) 97,87 %
06.03.2018 13:28 11,7 C 15,0 C 12,2 C 73 % 0 lf 989,8 hPa 0,0 l/m 2 min 0 min 302 W/m 11,3 km/h (2 Bft) 95,74 %
06.03.2018 13:30 11,7 C 15,0 C 12,2 C 73 % 0 lf 989,7 hPa 0,0 l/m 2 min 0 min 296 W/m 15,8 km/h (3 Bft) 95,74 %
06.03.2018 13:32 11,7 C 15,6 C 12,2 C 73 % 0 lf 989,7 hPa 0,0 l/m 2 min 0 min 296 W/m 11,3 km/h (2 Bft) 91,49 %
06.03.2018 13:34 11,8 C 15,6 C 12,2 C 73 % 0 lf 989,7 hPa 0,0 l/m 2 min 0 min 296 W/m 9,0 km/h (2 Bft) 95,65 %
06.03.2018 13:36 11,8 C 15,6 C 11,7 C 73 % 0 lf 989,7 hPa 0,0 l/m 2 min 0 min 296 W/m 15,8 km/h (3 Bft) 93,62 %
06.03.2018 13:38 11,8 C 15,0 C 11,7 C 73 % 0 lf 989,6 hPa 0,0 l/m 2 min 0 min 281 W/m 11,3 km/h (2 Bft) 93,62 %
06.03.2018 13:40 11,8 C 15,6 C 11,7 C 73 % 0 lf 989,6 hPa 0,0 l/m 2 min 0 min 283 W/m 11,3 km/h (2 Bft) 93,62 %
06.03.2018 13:42 11,8 C 16,1 C 11,7 C 73 % 0 lf 989,7 hPa 0,0 l/m 2 min 0 min 344 W/m 11,3 km/h (2 Bft) 95,74 %
06.03.2018 13:44 11,8 C 15,6 C 11,7 C 73 % 0 lf 989,7 hPa 0,0 l/m 2 min 0 min 302 W/m 11,3 km/h (2 Bft) 95,74 %
06.03.2018 13:46 11,8 C 16,1 C 11,7 C 73 % 0 lf 989,7 hPa 0,0 l/m 2 min 0 min 305 W/m 11,3 km/h (2 Bft) 93,62 %
06.03.2018 13:48 11,8 C 16,1 C 12,2 C 73 % 0 lf 989,7 hPa 0,0 l/m 2 min 0 min 322 W/m 11,3 km/h (2 Bft) 95,65 %
06.03.2018 13:50 11,9 C 16,7 C 12,2 C 73 % 0 lf 989,7 hPa 0,0 l/m 2 min 0 min 383 W/m 13,5 km/h (3 Bft) 93,62 %
06.03.2018 13:52 11,9 C 17,2 C 12,2 C 73 % 0 lf 989,6 hPa 0,0 l/m 2 min 0 min 379 W/m 15,8 km/h (3 Bft) 95,74 %
06.03.2018 13:54 11,9 C 17,2 C 12,2 C 73 % 0 lf 989,6 hPa 0,0 l/m 2 min 0 min 362 W/m 11,3 km/h (2 Bft) 93,62 %
06.03.2018 13:56 12,0 C 17,2 C 12,2 C 73 % 0 lf 989,6 hPa 0,0 l/m 2 min 0 min 323 W/m 9,0 km/h (2 Bft) 95,74 %
06.03.2018 13:58 12,0 C 16,7 C 12,2 C 73 % 0 lf 989,5 hPa 0,0 l/m 2 min 0 min 298 W/m 13,5 km/h (3 Bft) 95,65 %
06.03.2018 14:00 12,0 C 15,6 C 12,2 C 72 % 0 lf 989,6 hPa 0,0 l/m 2 min 0 min 311 W/m 13,5 km/h (3 Bft) 95,74 %
06.03.2018 14:02 12,0 C 15,6 C 12,2 C 72 % 0 lf 989,5 hPa 0,0 l/m 2 min 0 min 304 W/m 11,3 km/h (2 Bft) 93,62 %
06.03.2018 14:04 12,0 C 15,6 C 12,2 C 72 % 0 lf 989,5 hPa 0,0 l/m 2 min 0 min 319 W/m 4,5 km/h (1 Bft) 95,74 %
06.03.2018 14:06 12,1 C 16,7 C 12,2 C 72 % 0 lf 989,5 hPa 0,0 l/m 2 min 0 min 334 W/m 6,8 km/h (2 Bft) 93,62 %
06.03.2018 14:08 12,1 C 16,7 C 12,2 C 72 % 0 lf 989,5 hPa 0,0 l/m 2 min 0 min 326 W/m 13,5 km/h (3 Bft) 97,87 %
06.03.2018 14:10 12,1 C 16,1 C 12,2 C 72 % 0 lf 989,5 hPa 0,0 l/m 2 min 0 min 303 W/m 9,0 km/h (2 Bft) 97,83 %
06.03.2018 14:12 12,1 C 16,1 C 11,7 C 72 % 0 lf 989,5 hPa 0,0 l/m 2 min 0 min 316 W/m 11,3 km/h (2 Bft) 97,87 %
06.03.2018 14:14 12,1 C 15,6 C 11,7 C 72 % 0 lf 989,5 hPa 0,0 l/m 2 min 0 min 300 W/m 11,3 km/h (2 Bft) 95,74 %
06.03.2018 14:16 12,1 C 15,6 C 11,7 C 72 % 0 lf 989,4 hPa 0,0 l/m 2 min 0 min 266 W/m 11,3 km/h (2 Bft) 97,87 %
06.03.2018 14:18 12,1 C 15,6 C 11,7 C 72 % 0 lf 989,4 hPa 0,0 l/m 2 min 0 min 272 W/m 11,3 km/h (2 Bft) 95,74 %
06.03.2018 14:20 12,1 C 15,0 C 11,7 C 72 % 0 lf 989,4 hPa 0,0 l/m 2 min 0 min 254 W/m 11,3 km/h (2 Bft) 97,87 %
06.03.2018 14:22 12,1 C 15,6 C 11,7 C 72 % 0 lf 989,4 hPa 0,0 l/m 2 min 0 min 304 W/m 9,0 km/h (2 Bft) 100,00 %
06.03.2018 14:24 12,1 C 16,1 C 11,7 C 72 % 0 lf 989,5 hPa 0,0 l/m 2 min 0 min 295 W/m 9,0 km/h (2 Bft) 100,00 %
06.03.2018 14:26 12,1 C 16,1 C 11,7 C 72 % 0 lf 989,4 hPa 0,0 l/m 2 min 0 min 262 W/m 9,0 km/h (2 Bft) 100,00 %
06.03.2018 14:28 12,1 C 15,6 C 11,7 C 72 % 0 lf 989,4 hPa 0,0 l/m 2 min 0 min 267 W/m 11,3 km/h (2 Bft) 97,87 %
06.03.2018 14:30 12,1 C 16,1 C 11,7 C 72 % 0 lf 989,3 hPa 0,0 l/m 2 min 0 min 312 W/m 11,3 km/h (2 Bft) 97,87 %
06.03.2018 14:32 12,1 C 15,6 C 11,7 C 72 % 0 lf 989,4 hPa 0,0 l/m 2 min 0 min 271 W/m 11,3 km/h (2 Bft) 100,00 %
06.03.2018 14:34 12,1 C 16,1 C 11,7 C 72 % 0 lf 989,4 hPa 0,0 l/m 2 min 0 min 365 W/m 11,3 km/h (2 Bft) 100,00 %
06.03.2018 14:36 12,1 C 17,2 C 12,2 C 72 % 0 lf 989,3 hPa 0,0 l/m 2 min 0 min 451 W/m 9,0 km/h (2 Bft) 100,00 %
06.03.2018 14:38 12,2 C 18,3 C 12,8 C 72 % 0 lf 989,4 hPa 0,0 l/m 2 min 0 min 432 W/m 15,8 km/h (3 Bft) 100,00 %
06.03.2018 14:40 12,2 C 18,9 C 12,8 C 72 % 0 lf 989,4 hPa 0,0 l/m 2 min 0 min 418 W/m 13,5 km/h (3 Bft) 100,00 %
06.03.2018 14:42 12,3 C 18,3 C 12,8 C 72 % 0 lf 989,4 hPa 0,0 l/m 2 min 0 min 331 W/m 9,0 km/h (2 Bft) 100,00 %
06.03.2018 14:44 12,3 C 17,8 C 12,8 C 72 % 0 lf 989,3 hPa 0,0 l/m 2 min 0 min 287 W/m 4,5 km/h (1 Bft) 95,74 %
06.03.2018 14:46 12,3 C 17,2 C 12,2 C 72 % 0 lf 989,3 hPa 0,0 l/m 2 min 0 min 306 W/m 11,3 km/h (2 Bft) 95,74 %
06.03.2018 14:48 12,3 C 16,7 C 12,2 C 71 % 0 lf 989,3 hPa 0,0 l/m 2 min 0 min 300 W/m 11,3 km/h (2 Bft) 97,87 %
06.03.2018 14:50 12,4 C 16,7 C 12,2 C 72 % 0 lf 989,4 hPa 0,0 l/m 2 min 0 min 334 W/m 11,3 km/h (2 Bft) 97,87 %
06.03.2018 14:52 12,4 C 15,6 C 12,2 C 71 % 0 lf 989,3 hPa 0,0 l/m 2 min 0 min 282 W/m 11,3 km/h (2 Bft) 100,00 %
06.03.2018 14:54 12,4 C 15,6 C 11,7 C 71 % 0 lf 989,4 hPa 0,0 l/m 2 min 0 min 237 W/m 15,8 km/h (3 Bft) 95,65 %
06.03.2018 14:56 12,4 C 15,0 C 11,7 C 71 % 0 lf 989,3 hPa 0,0 l/m 2 min 0 min 256 W/m 11,3 km/h (2 Bft) 93,62 %
06.03.2018 14:58 12,4 C 14,4 C 11,7 C 71 % 0 lf 989,4 hPa 0,0 l/m 2 min 0 min 238 W/m 13,5 km/h (3 Bft) 91,49 %
06.03.2018 15:00 12,4 C 14,4 C 11,7 C 71 % 0 lf 989,4 hPa 0,0 l/m 0 min 0 min 207 W/m 9,0 km/h (2 Bft) 95,74 %
06.03.2018 15:02 12,3 C 13,9 C 11,7 C 71 % 0 lf 989,4 hPa 0,0 l/m 0 min 0 min 207 W/m 11,3 km/h (2 Bft) 91,49 %
06.03.2018 15:04 12,3 C 13,9 C 11,1 C 71 % 0 lf 989,4 hPa 0,0 l/m 0 min 0 min 209 W/m 13,5 km/h (3 Bft) 95,74 %
06.03.2018 15:06 12,3 C 13,9 C 11,1 C 72 % 0 lf 989,4 hPa 0,0 l/m 0 min 0 min 215 W/m 13,5 km/h (3 Bft) 95,65 %
06.03.2018 15:08 12,3 C 13,9 C 11,1 C 72 % 0 lf 989,4 hPa 0,0 l/m 2 min 0 min 215 W/m 9,0 km/h (2 Bft) 95,74 %
06.03.2018 15:10 12,2 C 14,4 C 11,7 C 72 % 0 lf 989,4 hPa 0,0 l/m 2 min 0 min 220 W/m 9,0 km/h (2 Bft) 95,74 %
06.03.2018 15:12 12,2 C 13,9 C 11,7 C 72 % 0 lf 989,4 hPa 0,0 l/m 2 min 0 min 213 W/m 6,8 km/h (2 Bft) 93,62 %
06.03.2018 15:14 12,2 C 13,9 C 11,7 C 72 % 0 lf 989,4 hPa 0,0 l/m 0 min 0 min 202 W/m 11,3 km/h (2 Bft) 91,49 %
06.03.2018 15:16 12,2 C 13,9 C 11,7 C 72 % 0 lf 989,5 hPa 0,0 l/m 0 min 0 min 193 W/m 11,3 km/h (2 Bft) 93,62 %
06.03.2018 15:18 12,2 C 13,3 C 11,1 C 72 % 0 lf 989,4 hPa 0,0 l/m 0 min 0 min 192 W/m 11,3 km/h (2 Bft) 93,48 %
06.03.2018 15:20 12,1 C 13,9 C 11,1 C 72 % 0 lf 989,4 hPa 0,0 l/m 0 min 0 min 188 W/m 11,3 km/h (2 Bft) 95,74 %
06.03.2018 15:22 12,1 C 13,9 C 11,1 C 72 % 0 lf 989,4 hPa 0,0 l/m 0 min 0 min 183 W/m 9,0 km/h (2 Bft) 95,92 %
06.03.2018 15:24 12,1 C 13,3 C 11,1 C 72 % 0 lf 989,4 hPa 0,0 l/m 0 min 0 min 177 W/m 6,8 km/h (2 Bft) 95,74 %
06.03.2018 15:26 12,1 C 13,3 C 11,1 C 72 % 0 lf 989,3 hPa 0,0 l/m 0 min 0 min 172 W/m 6,8 km/h (2 Bft) 91,49 %
06.03.2018 15:28 12,1 C 13,3 C 11,1 C 72 % 0 lf 989,3 hPa 0,0 l/m 0 min 0 min 173 W/m 4,5 km/h (1 Bft) 93,48 %
06.03.2018 15:30 12,1 C 13,3 C 11,1 C 72 % 0 lf 989,3 hPa 0,0 l/m 0 min 0 min 172 W/m 4,5 km/h (1 Bft) 95,74 %
06.03.2018 15:32 12,1 C 13,3 C 11,1 C 72 % 0 lf 989,3 hPa 0,0 l/m 0 min 0 min 170 W/m 6,8 km/h (2 Bft) 97,87 %
06.03.2018 15:34 12,1 C 13,3 C 11,1 C 73 % 0 lf 989,3 hPa 0,0 l/m 0 min 0 min 166 W/m 6,8 km/h (2 Bft) 97,87 %
06.03.2018 15:36 12,1 C 13,9 C 11,1 C 73 % 0 lf 989,3 hPa 0,0 l/m 0 min 0 min 163 W/m 6,8 km/h (2 Bft) 95,74 %
06.03.2018 15:38 12,0 C 13,9 C 11,1 C 73 % 0 lf 989,3 hPa 0,0 l/m 0 min 0 min 161 W/m 6,8 km/h (2 Bft) 100,00 %
06.03.2018 15:40 12,0 C 13,3 C 11,1 C 73 % 0 lf 989,3 hPa 0,0 l/m 0 min 0 min 154 W/m 6,8 km/h (2 Bft) 97,83 %
06.03.2018 15:42 12,0 C 13,3 C 11,1 C 73 % 0 lf 989,3 hPa 0,0 l/m 0 min 0 min 150 W/m 6,8 km/h (2 Bft) 100,00 %
06.03.2018 15:44 12,0 C 13,3 C 11,1 C 73 % 0 lf 989,3 hPa 0,0 l/m 0 min 0 min 147 W/m 6,8 km/h (2 Bft) 100,00 %
06.03.2018 15:46 11,9 C 12,8 C 11,1 C 73 % 0 lf 989,4 hPa 0,0 l/m 0 min 0 min 148 W/m 6,8 km/h (2 Bft) 97,87 %
06.03.2018 15:48 11,9 C 12,8 C 10,6 C 73 % 0 lf 989,3 hPa 0,0 l/m 0 min 0 min 157 W/m 6,8 km/h (2 Bft) 97,87 %
06.03.2018 15:50 11,9 C 12,8 C 10,6 C 73 % 0 lf 989,3 hPa 0,0 l/m 0 min 0 min 163 W/m 9,0 km/h (2 Bft) 97,87 %
06.03.2018 15:52 11,9 C 13,3 C 11,1 C 73 % 0 lf 989,3 hPa 0,0 l/m 2 min 0 min 177 W/m 9,0 km/h (2 Bft) 100,00 %
06.03.2018 15:54 11,9 C 13,9 C 11,1 C 73 % 0 lf 989,3 hPa 0,0 l/m 2 min 0 min 192 W/m 6,8 km/h (2 Bft) 97,87 %
06.03.2018 15:56 11,9 C 13,9 C 11,1 C 73 % 0 lf 989,3 hPa 0,0 l/m 2 min 0 min 200 W/m 9,0 km/h (2 Bft) 97,87 %
06.03.2018 15:58 11,9 C 13,9 C 11,1 C 73 % 0 lf 989,4 hPa 0,0 l/m 2 min 0 min 187 W/m 9,0 km/h (2 Bft) 97,87 %
06.03.2018 16:00 11,9 C 13,9 C 11,1 C 73 % 0 lf 989,4 hPa 0,0 l/m 2 min 0 min 182 W/m 9,0 km/h (2 Bft) 100,00 %
06.03.2018 16:02 11,9 C 13,9 C 11,1 C 73 % 0 lf 989,4 hPa 0,0 l/m 2 min 0 min 216 W/m 6,8 km/h (2 Bft) 97,83 %
06.03.2018 16:04 11,9 C 13,9 C 11,7 C 73 % 0 lf 989,3 hPa 0,0 l/m 2 min 0 min 222 W/m 6,8 km/h (2 Bft) 95,74 %
06.03.2018 16:06 11,9 C 13,9 C 11,7 C 73 % 0 lf 989,3 hPa 0,0 l/m 2 min 0 min 182 W/m 6,8 km/h (2 Bft) 97,87 %
06.03.2018 16:08 11,9 C 13,3 C 11,7 C 73 % 0 lf 989,3 hPa 0,0 l/m 2 min 0 min 183 W/m 9,0 km/h (2 Bft) 97,87 %
06.03.2018 16:10 12,0 C 13,3 C 11,7 C 73 % 0 lf 989,4 hPa 0,0 l/m 2 min 0 min 171 W/m 6,8 km/h (2 Bft) 97,87 %
06.03.2018 16:12 12,0 C 12,8 C 11,7 C 73 % 0 lf 989,3 hPa 0,0 l/m 2 min 0 min 162 W/m 13,5 km/h (3 Bft) 93,62 %
06.03.2018 16:14 12,0 C 12,8 C 11,7 C 73 % 0 lf 989,3 hPa 0,0 l/m 0 min 0 min 143 W/m 6,8 km/h (2 Bft) 97,83 %
06.03.2018 16:16 12,0 C 13,3 C 11,1 C 74 % 0 lf 989,3 hPa 0,0 l/m 0 min 0 min 135 W/m 9,0 km/h (2 Bft) 97,87 %
06.03.2018 16:18 12,0 C 13,3 C 11,1 C 74 % 0 lf 989,4 hPa 0,0 l/m 0 min 0 min 129 W/m 6,8 km/h (2 Bft) 95,83 %
06.03.2018 16:20 12,0 C 12,8 C 11,1 C 74 % 0 lf 989,4 hPa 0,0 l/m 0 min 0 min 118 W/m 13,5 km/h (3 Bft) 97,87 %
06.03.2018 16:22 12,0 C 12,8 C 11,1 C 73 % 0 lf 989,4 hPa 0,0 l/m 0 min 0 min 110 W/m 9,0 km/h (2 Bft) 95,74 %
06.03.2018 16:24 12,0 C 12,8 C 11,1 C 73 % 0 lf 989,4 hPa 0,0 l/m 0 min 0 min 103 W/m 13,5 km/h (3 Bft) 95,74 %
06.03.2018 16:26 12,0 C 12,2 C 10,6 C 73 % 0 lf 989,4 hPa 0,0 l/m 0 min 0 min 105 W/m 9,0 km/h (2 Bft) 97,87 %
06.03.2018 16:28 12,0 C 12,2 C 10,6 C 74 % 0 lf 989,3 hPa 0,0 l/m 0 min 0 min 108 W/m 9,0 km/h (2 Bft) 97,87 %
06.03.2018 16:30 12,0 C 12,8 C 10,6 C 74 % 0 lf 989,4 hPa 0,0 l/m 0 min 0 min 113 W/m 6,8 km/h (2 Bft) 95,65 %
06.03.2018 16:32 11,9 C 12,2 C 10,6 C 74 % 0 lf 989,4 hPa 0,0 l/m 0 min 0 min 116 W/m 11,3 km/h (2 Bft) 95,74 %
06.03.2018 16:34 11,9 C 12,2 C 10,6 C 74 % 0 lf 989,4 hPa 0,0 l/m 0 min 0 min 117 W/m 11,3 km/h (2 Bft) 95,74 %
06.03.2018 16:36 11,9 C 12,2 C 10,6 C 74 % 0 lf 989,4 hPa 0,0 l/m 0 min 0 min 116 W/m 11,3 km/h (2 Bft) 93,62 %
06.03.2018 16:38 11,9 C 12,2 C 10,6 C 75 % 0 lf 989,4 hPa 0,0 l/m 0 min 0 min 103 W/m 11,3 km/h (2 Bft) 95,74 %
06.03.2018 16:40 11,9 C 12,2 C 10,6 C 75 % 0 lf 989,4 hPa 0,0 l/m 0 min 0 min 93 W/m 6,8 km/h (2 Bft) 93,62 %
06.03.2018 16:42 11,9 C 12,2 C 10,0 C 75 % 0 lf 989,4 hPa 0,0 l/m 0 min 0 min 81 W/m 11,3 km/h (2 Bft) 97,83 %
06.03.2018 16:44 11,9 C 12,2 C 10,0 C 75 % 0 lf 989,4 hPa 0,0 l/m 0 min 0 min 75 W/m 9,0 km/h (2 Bft) 97,87 %
06.03.2018 16:46 11,8 C 11,7 C 10,0 C 75 % 0 lf 989,4 hPa 0,0 l/m 0 min 0 min 71 W/m 13,5 km/h (3 Bft) 97,87 %
06.03.2018 16:48 11,8 C 11,7 C 10,0 C 75 % 0 lf 989,5 hPa 0,0 l/m 0 min 0 min 69 W/m 15,8 km/h (3 Bft) 97,87 %
06.03.2018 16:50 11,7 C 11,7 C 10,0 C 75 % 0 lf 989,5 hPa 0,0 l/m 0 min 0 min 69 W/m 11,3 km/h (2 Bft) 95,74 %
06.03.2018 16:52 11,7 C 11,7 C 10,0 C 75 % 0 lf 989,5 hPa 0,0 l/m 0 min 0 min 69 W/m 13,5 km/h (3 Bft) 97,87 %
06.03.2018 16:54 11,7 C 11,7 C 10,0 C 75 % 0 lf 989,5 hPa 0,0 l/m 0 min 0 min 65 W/m 15,8 km/h (3 Bft) 95,65 %
06.03.2018 16:56 11,6 C 11,7 C 9,4 C 75 % 0 lf 989,5 hPa 0,0 l/m 0 min 0 min 63 W/m 15,8 km/h (3 Bft) 91,49 %
06.03.2018 16:58 11,6 C 11,7 C 9,4 C 75 % 0 lf 989,5 hPa 0,0 l/m 0 min 0 min 62 W/m 13,5 km/h (3 Bft) 97,87 %
06.03.2018 17:00 11,6 C 11,1 C 9,4 C 76 % 0 lf 989,5 hPa 0,0 l/m 0 min 0 min 62 W/m 11,3 km/h (2 Bft) 97,87 %
06.03.2018 17:02 11,5 C 11,1 C 9,4 C 76 % 0 lf 989,5 hPa 0,0 l/m 0 min 0 min 62 W/m 9,0 km/h (2 Bft) 95,74 %
06.03.2018 17:04 11,5 C 11,1 C 9,4 C 76 % 0 lf 989,5 hPa 0,0 l/m 0 min 0 min 65 W/m 11,3 km/h (2 Bft) 97,87 %
06.03.2018 17:06 11,4 C 11,1 C 9,4 C 76 % 0 lf 989,5 hPa 0,0 l/m 0 min 0 min 69 W/m 9,0 km/h (2 Bft) 93,48 %
06.03.2018 17:08 11,4 C 11,1 C 9,4 C 76 % 0 lf 989,6 hPa 0,0 l/m 0 min 0 min 67 W/m 11,3 km/h (2 Bft) 97,87 %
06.03.2018 17:10 11,3 C 11,1 C 9,4 C 76 % 0 lf 989,6 hPa 0,0 l/m 0 min 0 min 66 W/m 11,3 km/h (2 Bft) 97,87 %
06.03.2018 17:12 11,3 C 11,1 C 9,4 C 76 % 0 lf 989,6 hPa 0,0 l/m 0 min 0 min 64 W/m 13,5 km/h (3 Bft) 97,87 %
06.03.2018 17:14 11,3 C 11,1 C 9,4 C 76 % 0 lf 989,6 hPa 0,0 l/m 0 min 0 min 64 W/m 15,8 km/h (3 Bft) 97,87 %
06.03.2018 17:16 11,2 C 11,1 C 9,4 C 76 % 0 lf 989,6 hPa 0,0 l/m 0 min 0 min 65 W/m 15,8 km/h (3 Bft) 95,65 %
06.03.2018 17:18 11,2 C 11,1 C 9,4 C 76 % 0 lf 989,6 hPa 0,0 l/m 0 min 0 min 65 W/m 9,0 km/h (2 Bft) 97,87 %
06.03.2018 17:20 11,2 C 11,1 C 9,4 C 76 % 0 lf 989,6 hPa 0,0 l/m 0 min 0 min 63 W/m 9,0 km/h (2 Bft) 97,87 %
06.03.2018 17:22 11,1 C 11,1 C 9,4 C 76 % 0 lf 989,6 hPa 0,0 l/m 0 min 0 min 60 W/m 13,5 km/h (3 Bft) 97,87 %
06.03.2018 17:24 11,1 C 11,1 C 9,4 C 76 % 0 lf 989,6 hPa 0,0 l/m 0 min 0 min 56 W/m 9,0 km/h (2 Bft) 97,87 %
06.03.2018 17:26 11,1 C 11,1 C 9,4 C 76 % 0 lf 989,6 hPa 0,0 l/m 0 min 0 min 54 W/m 9,0 km/h (2 Bft) 100,00 %
06.03.2018 17:28 11,1 C 11,1 C 9,4 C 76 % 0 lf 989,6 hPa 0,0 l/m 0 min 0 min 54 W/m 13,5 km/h (3 Bft) 100,00 %
06.03.2018 17:30 11,1 C 11,1 C 9,4 C 76 % 0 lf 989,6 hPa 0,0 l/m 0 min 0 min 53 W/m 13,5 km/h (3 Bft) 97,87 %
06.03.2018 17:32 11,0 C 11,1 C 9,4 C 76 % 0 lf 989,7 hPa 0,0 l/m 0 min 0 min 54 W/m 13,5 km/h (3 Bft) 97,87 %
06.03.2018 17:34 11,0 C 11,1 C 9,4 C 76 % 0 lf 989,7 hPa 0,0 l/m 0 min 0 min 55 W/m 13,5 km/h (3 Bft) 95,74 %
06.03.2018 17:36 11,0 C 11,1 C 9,4 C 77 % 0 lf 989,8 hPa 0,0 l/m 0 min 0 min 54 W/m 18,0 km/h (3 Bft) 93,62 %
06.03.2018 17:38 10,9 C 11,1 C 9,4 C 77 % 0 lf 989,8 hPa 0,0 l/m 0 min 0 min 50 W/m 13,5 km/h (3 Bft) 97,87 %
06.03.2018 17:40 10,9 C 10,6 C 9,4 C 77 % 0 lf 989,8 hPa 0,0 l/m 0 min 0 min 46 W/m 11,3 km/h (2 Bft) 97,83 %
06.03.2018 17:42 10,9 C 10,6 C 9,4 C 77 % 0 lf 989,8 hPa 0,0 l/m 0 min 0 min 43 W/m 13,5 km/h (3 Bft) 95,74 %
06.03.2018 17:44 10,9 C 10,6 C 8,9 C 77 % 0 lf 989,8 hPa 0,0 l/m 0 min 0 min 41 W/m 13,5 km/h (3 Bft) 97,87 %
06.03.2018 17:46 10,9 C 10,6 C 8,9 C 77 % 0 lf 989,8 hPa 0,0 l/m 0 min 0 min 39 W/m 15,8 km/h (3 Bft) 93,62 %
06.03.2018 17:48 10,9 C 10,6 C 8,9 C 78 % 0 lf 989,8 hPa 0,0 l/m 0 min 0 min 37 W/m 9,0 km/h (2 Bft) 93,62 %
06.03.2018 17:50 10,8 C 10,6 C 8,9 C 78 % 0 lf 989,8 hPa 0,0 l/m 0 min 0 min 34 W/m 13,5 km/h (3 Bft) 93,62 %
06.03.2018 17:52 10,8 C 10,6 C 8,3 C 78 % 0 lf 989,9 hPa 0,0 l/m 0 min 0 min 33 W/m 11,3 km/h (2 Bft) 93,48 %
06.03.2018 17:54 10,8 C 10,6 C 8,3 C 78 % 0 lf 989,8 hPa 0,0 l/m 2 min 0 min 32 W/m 18,0 km/h (3 Bft) 93,62 %
06.03.2018 17:56 10,8 C 10,0 C 8,3 C 78 % 0 lf 989,9 hPa 0,0 l/m 2 min 0 min 32 W/m 9,0 km/h (2 Bft) 95,74 %
06.03.2018 17:58 10,7 C 10,0 C 8,3 C 78 % 0 lf 989,8 hPa 0,0 l/m 2 min 0 min 32 W/m 11,3 km/h (2 Bft) 91,49 %
06.03.2018 18:00 10,7 C 10,0 C 7,8 C 78 % 0 lf 989,9 hPa 0,0 l/m 2 min 0 min 34 W/m 9,0 km/h (2 Bft) 95,74 %
06.03.2018 18:02 10,7 C 10,0 C 7,8 C 78 % 0 lf 989,9 hPa 0,0 l/m 2 min 0 min 37 W/m 9,0 km/h (2 Bft) 95,74 %
06.03.2018 18:04 10,7 C 10,0 C 7,8 C 78 % 0 lf 989,9 hPa 0,0 l/m 2 min 0 min 37 W/m 9,0 km/h (2 Bft) 95,65 %
06.03.2018 18:06 10,6 C 10,0 C 7,8 C 78 % 0 lf 990,0 hPa 0,0 l/m 2 min 0 min 34 W/m 6,8 km/h (2 Bft) 95,92 %
06.03.2018 18:08 10,6 C 10,0 C 7,8 C 78 % 0 lf 990,0 hPa 0,0 l/m 2 min 0 min 31 W/m 9,0 km/h (2 Bft) 93,62 %
06.03.2018 18:10 10,6 C 10,0 C 7,8 C 78 % 0 lf 990,1 hPa 0,0 l/m 2 min 0 min 27 W/m 6,8 km/h (2 Bft) 91,49 %
06.03.2018 18:12 10,6 C 10,0 C 7,8 C 78 % 0 lf 990,1 hPa 0,0 l/m 2 min 0 min 22 W/m 9,0 km/h (2 Bft) 93,62 %
06.03.2018 18:14 10,5 C 10,0 C 7,8 C 78 % 0 lf 990,1 hPa 0,0 l/m 0 min 0 min 17 W/m 4,5 km/h (1 Bft) 93,62 %
06.03.2018 18:16 10,5 C 10,0 C 7,2 C 78 % 0 lf 990,2 hPa 0,0 l/m 0 min 0 min 14 W/m 2,3 km/h (1 Bft) 91,30 %
06.03.2018 18:18 10,5 C 9,4 C 7,2 C 78 % 0 lf 990,1 hPa 0,0 l/m 0 min 0 min 14 W/m 4,5 km/h (1 Bft) 93,62 %
06.03.2018 18:20 10,5 C 9,4 C 7,2 C 78 % 0 lf 990,1 hPa 0,0 l/m 0 min 0 min 13 W/m 4,5 km/h (1 Bft) 93,62 %
06.03.2018 18:22 10,4 C 9,4 C 7,2 C 78 % 0 lf 990,1 hPa 0,0 l/m 0 min 0 min 12 W/m 4,5 km/h (1 Bft) 91,49 %
06.03.2018 18:24 10,4 C 9,4 C 6,7 C 78 % 0 lf 990,1 hPa 0,0 l/m 0 min 0 min 9 W/m 4,5 km/h (1 Bft) 95,74 %
06.03.2018 18:26 10,4 C 9,4 C 6,7 C 78 % 0 lf 990,1 hPa 0,0 l/m 0 min 0 min 7 W/m 4,5 km/h (1 Bft) 93,48 %
06.03.2018 18:28 10,4 C 9,4 C 6,7 C 78 % 0 lf 990,2 hPa 0,0 l/m 0 min 0 min 5 W/m 4,5 km/h (1 Bft) 95,74 %
06.03.2018 18:30 10,3 C 9,4 C 6,7 C 78 % 0 lf 990,2 hPa 0,0 l/m 0 min 0 min 3 W/m 2,3 km/h (1 Bft) 95,74 %
06.03.2018 18:32 10,3 C 9,4 C 6,7 C 78 % 0 lf 990,2 hPa 0,0 l/m 0 min 0 min 0 W/m 6,8 km/h (2 Bft) 93,62 %
06.03.2018 18:34 10,3 C 9,4 C 6,7 C 78 % 0 lf 990,2 hPa 0,0 l/m 0 min 0 min 0 W/m 4,5 km/h (1 Bft) 95,74 %
06.03.2018 18:36 10,3 C 9,4 C 6,7 C 78 % 0 lf 990,3 hPa 0,0 l/m 0 min 0 min 0 W/m 4,5 km/h (1 Bft) 93,62 %
06.03.2018 18:38 10,2 C 9,4 C 6,7 C 78 % 0 lf 990,3 hPa 0,0 l/m 0 min 0 min 0 W/m 6,8 km/h (2 Bft) 97,83 %
06.03.2018 18:40 10,2 C 8,9 C 6,1 C 78 % 0 lf 990,3 hPa 0,0 l/m 0 min 0 min 0 W/m 4,5 km/h (1 Bft) 93,62 %
06.03.2018 18:42 10,2 C 8,9 C 6,1 C 78 % 0 lf 990,3 hPa 0,0 l/m 0 min 0 min 0 W/m 4,5 km/h (1 Bft) 95,74 %
06.03.2018 18:44 10,2 C 8,9 C 6,1 C 78 % 0 lf 990,4 hPa 0,0 l/m 0 min 0 min 0 W/m 4,5 km/h (1 Bft) 93,62 %
06.03.2018 18:46 10,1 C 8,9 C 6,1 C 78 % 0 lf 990,3 hPa 0,0 l/m 0 min 0 min 0 W/m 4,5 km/h (1 Bft) 97,87 %
06.03.2018 18:48 10,1 C 8,9 C 6,1 C 78 % 0 lf 990,4 hPa 0,0 l/m 0 min 0 min 0 W/m 4,5 km/h (1 Bft) 100,00 %
06.03.2018 18:50 10,1 C 8,9 C 6,1 C 78 % 0 lf 990,4 hPa 0,0 l/m 0 min 0 min 0 W/m 4,5 km/h (1 Bft) 100,00 %
06.03.2018 18:52 10,1 C 8,9 C 6,1 C 78 % 0 lf 990,5 hPa 0,0 l/m 0 min 0 min 0 W/m 2,3 km/h (1 Bft) 100,00 %
06.03.2018 18:54 10,0 C 8,9 C 6,1 C 78 % 0 lf 990,5 hPa 0,0 l/m 0 min 0 min 0 W/m 2,3 km/h (1 Bft) 97,87 %
06.03.2018 18:56 9,9 C 8,9 C 6,1 C 78 % 0 lf 990,5 hPa 0,0 l/m 0 min 0 min 0 W/m 4,5 km/h (1 Bft) 95,74 %
06.03.2018 18:58 9,9 C 8,9 C 6,1 C 79 % 0 lf 990,5 hPa 0,0 l/m 0 min 0 min 0 W/m 4,5 km/h (1 Bft) 97,87 %
06.03.2018 19:00 9,9 C 8,9 C 6,1 C 79 % 0 lf 990,5 hPa 0,0 l/m 0 min 0 min 0 W/m 0,0 km/h (0 Bft) 100,00 %
06.03.2018 19:02 9,9 C 8,9 C 6,1 C 79 % 0 lf 990,5 hPa 0,0 l/m 0 min 0 min 0 W/m 2,3 km/h (1 Bft) 100,00 %
06.03.2018 19:04 9,8 C 8,9 C 6,1 C 79 % 0 lf 990,5 hPa 0,0 l/m 0 min 0 min 0 W/m 2,3 km/h (1 Bft) 100,00 %
06.03.2018 19:06 9,8 C 8,9 C 6,1 C 79 % 0 lf 990,5 hPa 0,0 l/m 0 min 0 min 0 W/m 2,3 km/h (1 Bft) 97,87 %
06.03.2018 19:08 9,8 C 8,9 C 6,1 C 79 % 0 lf 990,5 hPa 0,0 l/m 0 min 0 min 0 W/m 4,5 km/h (1 Bft) 95,74 %
06.03.2018 19:10 9,8 C 8,9 C 6,1 C 79 % 0 lf 990,5 hPa 0,0 l/m 0 min 0 min 0 W/m 4,5 km/h (1 Bft) 100,00 %
06.03.2018 19:12 9,7 C 8,3 C 5,6 C 79 % 0 lf 990,5 hPa 0,0 l/m 0 min 0 min 0 W/m 4,5 km/h (1 Bft) 97,83 %
06.03.2018 19:14 9,7 C 8,3 C 5,6 C 79 % 0 lf 990,5 hPa 0,0 l/m 0 min 0 min 0 W/m 4,5 km/h (1 Bft) 100,00 %
06.03.2018 19:16 9,7 C 8,3 C 5,6 C 79 % 0 lf 990,5 hPa 0,0 l/m 0 min 0 min 0 W/m 2,3 km/h (1 Bft) 97,87 %
06.03.2018 19:18 9,7 C 8,3 C 5,6 C 79 % 0 lf 990,6 hPa 0,0 l/m 0 min 0 min 0 W/m 2,3 km/h (1 Bft) 100,00 %
06.03.2018 19:20 9,6 C 8,3 C 5,6 C 79 % 0 lf 990,6 hPa 0,0 l/m 0 min 0 min 0 W/m 4,5 km/h (1 Bft) 100,00 %
06.03.2018 19:22 9,6 C 8,3 C 5,6 C 79 % 0 lf 990,6 hPa 0,0 l/m 0 min 0 min 0 W/m 2,3 km/h (1 Bft) 100,00 %
06.03.2018 19:24 9,6 C 8,3 C 5,6 C 79 % 0 lf 990,6 hPa 0,0 l/m 0 min 0 min 0 W/m 2,3 km/h (1 Bft) 97,83 %
06.03.2018 19:26 9,5 C 8,3 C 5,6 C 79 % 0 lf 990,6 hPa 0,0 l/m 0 min 0 min 0 W/m 6,8 km/h (2 Bft) 95,74 %
06.03.2018 19:28 9,5 C 8,3 C 5,6 C 80 % 0 lf 990,6 hPa 0,0 l/m 0 min 0 min 0 W/m 4,5 km/h (1 Bft) 100,00 %
06.03.2018 19:30 9,4 C 8,3 C 5,6 C 80 % 0 lf 990,6 hPa 0,0 l/m 0 min 0 min 0 W/m 4,5 km/h (1 Bft) 97,87 %
06.03.2018 19:32 9,4 C 8,3 C 5,6 C 80 % 0 lf 990,6 hPa 0,0 l/m 0 min 0 min 0 W/m 4,5 km/h (1 Bft) 97,87 %
06.03.2018 19:34 9,4 C 8,3 C 5,6 C 80 % 0 lf 990,7 hPa 0,0 l/m 0 min 0 min 0 W/m 4,5 km/h (1 Bft) 97,87 %
06.03.2018 19:36 9,4 C 8,3 C 5,6 C 80 % 0 lf 990,6 hPa 0,0 l/m 0 min 0 min 0 W/m 4,5 km/h (1 Bft) 97,83 %
06.03.2018 19:38 9,3 C 8,3 C 5,6 C 80 % 0 lf 990,6 hPa 0,0 l/m 0 min 0 min 0 W/m 2,3 km/h (1 Bft) 97,87 %
06.03.2018 19:40 9,3 C 8,3 C 5,6 C 80 % 0 lf 990,7 hPa 0,0 l/m 0 min 0 min 0 W/m 2,3 km/h (1 Bft) 95,74 %
06.03.2018 19:42 9,3 C 8,3 C 5,6 C 80 % 0 lf 990,7 hPa 0,0 l/m 0 min 0 min 0 W/m 2,3 km/h (1 Bft) 95,74 %
06.03.2018 19:44 9,3 C 8,3 C 5,6 C 80 % 0 lf 990,7 hPa 0,0 l/m 0 min 0 min 0 W/m 2,3 km/h (1 Bft) 97,87 %
06.03.2018 19:46 9,2 C 8,3 C 5,6 C 80 % 0 lf 990,7 hPa 0,0 l/m 0 min 0 min 0 W/m 2,3 km/h (1 Bft) 95,74 %
06.03.2018 19:48 9,2 C 8,3 C 5,6 C 80 % 0 lf 990,6 hPa 0,0 l/m 0 min 0 min 0 W/m 2,3 km/h (1 Bft) 95,65 %
06.03.2018 19:50 9,2 C 8,3 C 5,6 C 80 % 0 lf 990,6 hPa 0,0 l/m 0 min 0 min 0 W/m 0,0 km/h (0 Bft) 97,87 %
06.03.2018 19:52 9,2 C 8,3 C 5,6 C 80 % 0 lf 990,6 hPa 0,0 l/m 0 min 0 min 0 W/m 0,0 km/h (0 Bft) 95,74 %
06.03.2018 19:54 9,1 C 8,3 C 5,6 C 80 % 0 lf 990,6 hPa 0,0 l/m 0 min 0 min 0 W/m 2,3 km/h (1 Bft) 97,87 %
06.03.2018 19:56 9,1 C 8,3 C 5,6 C 80 % 0 lf 990,6 hPa 0,0 l/m 0 min 0 min 0 W/m 2,3 km/h (1 Bft) 95,74 %
06.03.2018 19:58 9,1 C 7,8 C 5,6 C 80 % 0 lf 990,6 hPa 0,0 l/m 0 min 0 min 0 W/m 2,3 km/h (1 Bft) 97,87 %
06.03.2018 20:00 9,1 C 7,8 C 5,0 C 80 % 0 lf 990,6 hPa 0,0 l/m 0 min 0 min 0 W/m 2,3 km/h (1 Bft) 97,83 %
06.03.2018 20:02 9,0 C 7,8 C 5,0 C 80 % 0 lf 990,6 hPa 0,0 l/m 0 min 0 min 0 W/m 2,3 km/h (1 Bft) 95,74 %
06.03.2018 20:04 9,0 C 7,8 C 5,0 C 80 % 0 lf 990,6 hPa 0,0 l/m 0 min 0 min 0 W/m 2,3 km/h (1 Bft) 95,74 %
06.03.2018 20:06 9,0 C 7,8 C 5,0 C 80 % 0 lf 990,6 hPa 0,0 l/m 0 min 0 min 0 W/m 2,3 km/h (1 Bft) 97,87 %
06.03.2018 20:08 8,9 C 7,8 C 5,0 C 81 % 0 lf 990,6 hPa 0,0 l/m 0 min 0 min 0 W/m 2,3 km/h (1 Bft) 91,49 %
06.03.2018 20:10 8,9 C 7,8 C 5,0 C 81 % 0 lf 990,6 hPa 0,0 l/m 0 min 0 min 0 W/m 0,0 km/h (0 Bft) 95,74 %
06.03.2018 20:12 8,9 C 7,8 C 5,0 C 81 % 0 lf 990,6 hPa 0,0 l/m 0 min 0 min 0 W/m 0,0 km/h (0 Bft) 93,48 %
06.03.2018 20:14 8,9 C 7,8 C 5,0 C 81 % 0 lf 990,6 hPa 0,0 l/m 0 min 0 min 0 W/m 0,0 km/h (0 Bft) 95,74 %
06.03.2018 20:16 8,8 C 7,8 C 5,0 C 81 % 0 lf 990,6 hPa 0,0 l/m 0 min 0 min 0 W/m 0,0 km/h (0 Bft) 95,74 %
06.03.2018 20:18 8,8 C 7,8 C 5,0 C 81 % 0 lf 990,6 hPa 0,0 l/m 0 min 0 min 0 W/m 2,3 km/h (1 Bft) 97,87 %
06.03.2018 20:20 8,8 C 7,8 C 5,0 C 81 % 0 lf 990,6 hPa 0,0 l/m 0 min 0 min 0 W/m 2,3 km/h (1 Bft) 95,74 %
06.03.2018 20:22 8,7 C 7,8 C 5,0 C 81 % 0 lf 990,7 hPa 0,0 l/m 0 min 0 min 0 W/m 0,0 km/h (0 Bft) 97,87 %
06.03.2018 20:24 8,7 C 7,8 C 5,0 C 81 % 0 lf 990,6 hPa 0,0 l/m 0 min 0 min 0 W/m 0,0 km/h (0 Bft) 97,83 %
06.03.2018 20:26 8,7 C 7,8 C 5,0 C 81 % 0 lf 990,7 hPa 0,0 l/m 0 min 0 min 0 W/m 0,0 km/h (0 Bft) 95,74 %
06.03.2018 20:28 8,7 C 7,2 C 5,0 C 81 % 0 lf 990,7 hPa 0,0 l/m 0 min 0 min 0 W/m 0,0 km/h (0 Bft) 95,74 %
06.03.2018 20:30 8,6 C 7,2 C 5,0 C 81 % 0 lf 990,6 hPa 0,0 l/m 0 min 0 min 0 W/m 0,0 km/h (0 Bft) 95,74 %
06.03.2018 20:32 8,6 C 7,2 C 5,0 C 81 % 0 lf 990,6 hPa 0,0 l/m 0 min 0 min 0 W/m 2,3 km/h (1 Bft) 95,74 %
06.03.2018 20:34 8,6 C 7,2 C 5,0 C 81 % 0 lf 990,6 hPa 0,0 l/m 0 min 0 min 0 W/m 2,3 km/h (1 Bft) 95,65 %
06.03.2018 20:36 8,6 C 7,2 C 5,0 C 81 % 0 lf 990,6 hPa 0,0 l/m 0 min 0 min 0 W/m 4,5 km/h (1 Bft) 89,36 %
06.03.2018 20:38 8,5 C 7,2 C 5,0 C 81 % 0 lf 990,6 hPa 0,0 l/m 0 min 0 min 0 W/m 4,5 km/h (1 Bft) 97,87 %
06.03.2018 20:40 8,5 C 7,8 C 5,0 C 81 % 0 lf 990,6 hPa 0,0 l/m 0 min 0 min 0 W/m 4,5 km/h (1 Bft) 97,87 %
06.03.2018 20:42 8,4 C 7,8 C 5,0 C 81 % 1 lf 990,6 hPa 0,0 l/m 0 min 0 min 0 W/m 0,0 km/h (0 Bft) 97,87 %
06.03.2018 20:44 8,4 C 7,8 C 5,0 C 82 % 0 lf 990,6 hPa 0,0 l/m 0 min 0 min 0 W/m 0,0 km/h (0 Bft) 97,87 %
06.03.2018 20:46 8,4 C 7,8 C 5,0 C 81 % 0 lf 990,7 hPa 0,0 l/m 0 min 0 min 0 W/m 0,0 km/h (0 Bft) 93,48 %
06.03.2018 20:48 8,4 C 7,8 C 5,0 C 81 % 0 lf 990,7 hPa 0,0 l/m 0 min 0 min 0 W/m 0,0 km/h (0 Bft) 97,87 %
06.03.2018 20:50 8,4 C 7,2 C 4,4 C 81 % 0 lf 990,7 hPa 0,0 l/m 0 min 0 min 0 W/m 0,0 km/h (0 Bft) 97,87 %
06.03.2018 20:52 8,3 C 7,2 C 4,4 C 81 % 0 lf 990,7 hPa 0,0 l/m 0 min 0 min 0 W/m 0,0 km/h (0 Bft) 97,87 %
06.03.2018 20:54 8,3 C 7,2 C 4,4 C 81 % 1 lf 990,7 hPa 0,0 l/m 0 min 0 min 0 W/m 0,0 km/h (0 Bft) 95,74 %
06.03.2018 20:56 8,3 C 7,2 C 4,4 C 81 % 0 lf 990,7 hPa 0,0 l/m 0 min 0 min 0 W/m 0,0 km/h (0 Bft) 95,74 %
06.03.2018 20:58 8,3 C 7,2 C 4,4 C 82 % 1 lf 990,8 hPa 0,0 l/m 0 min 0 min 0 W/m 0,0 km/h (0 Bft) 97,83 %
06.03.2018 21:00 8,2 C 7,2 C 4,4 C 82 % 2 lf 990,8 hPa 0,0 l/m 0 min 0 min 0 W/m 0,0 km/h (0 Bft) 97,87 %
06.03.2018 21:02 8,2 C 7,2 C 4,4 C 82 % 4 lf 990,8 hPa 0,0 l/m 0 min 2 min 0 W/m 0,0 km/h (0 Bft) 93,62 %
06.03.2018 21:04 8,2 C 6,7 C 4,4 C 82 % 7 lf 990,8 hPa 0,0 l/m 0 min 0 min 0 W/m 0,0 km/h (0 Bft) 97,87 %
06.03.2018 21:06 8,2 C 6,7 C 4,4 C 82 % 5 lf 990,8 hPa 0,0 l/m 0 min 0 min 0 W/m 0,0 km/h (0 Bft) 91,49 %
06.03.2018 21:08 8,1 C 6,7 C 4,4 C 82 % 4 lf 990,8 hPa 0,0 l/m 0 min 0 min 0 W/m 0,0 km/h (0 Bft) 97,87 %
06.03.2018 21:10 8,1 C 6,7 C 4,4 C 82 % 3 lf 990,8 hPa 0,0 l/m 0 min 0 min 0 W/m 0,0 km/h (0 Bft) 97,83 %
06.03.2018 21:12 8,1 C 6,7 C 4,4 C 82 % 2 lf 990,8 hPa 0,0 l/m 0 min 0 min 0 W/m 0,0 km/h (0 Bft) 95,74 %
06.03.2018 21:14 8,1 C 6,7 C 4,4 C 82 % 1 lf 990,9 hPa 0,0 l/m 0 min 0 min 0 W/m 2,3 km/h (1 Bft) 97,87 %
06.03.2018 21:16 8,1 C 6,7 C 4,4 C 82 % 1 lf 990,9 hPa 0,0 l/m 0 min 0 min 0 W/m 2,3 km/h (1 Bft) 97,87 %
06.03.2018 21:18 8,1 C 6,7 C 4,4 C 82 % 0 lf 990,9 hPa 0,0 l/m 0 min 0 min 0 W/m 4,5 km/h (1 Bft) 95,74 %
06.03.2018 21:20 8,0 C 6,7 C 4,4 C 82 % 0 lf 991,0 hPa 0,0 l/m 0 min 0 min 0 W/m 4,5 km/h (1 Bft) 100,00 %
06.03.2018 21:22 8,0 C 6,7 C 4,4 C 83 % 0 lf 991,0 hPa 0,0 l/m 0 min 0 min 0 W/m 4,5 km/h (1 Bft) 100,00 %
06.03.2018 21:24 8,0 C 6,7 C 4,4 C 83 % 0 lf 991,0 hPa 0,0 l/m 0 min 0 min 0 W/m 4,5 km/h (1 Bft) 100,00 %
06.03.2018 21:26 7,9 C 6,7 C 4,4 C 83 % 0 lf 991,0 hPa 0,0 l/m 0 min 0 min 0 W/m 4,5 km/h (1 Bft) 97,87 %
06.03.2018 21:28 7,9 C 6,7 C 4,4 C 83 % 0 lf 991,0 hPa 0,0 l/m 0 min 0 min 0 W/m 4,5 km/h (1 Bft) 97,87 %
06.03.2018 21:30 7,9 C 6,7 C 4,4 C 83 % 0 lf 991,0 hPa 0,0 l/m 0 min 0 min 0 W/m 4,5 km/h (1 Bft) 100,00 %
06.03.2018 21:32 7,9 C 6,7 C 4,4 C 83 % 0 lf 991,0 hPa 0,0 l/m 0 min 0 min 0 W/m 4,5 km/h (1 Bft) 100,00 %
06.03.2018 21:34 7,9 C 6,7 C 3,9 C 83 % 0 lf 991,1 hPa 0,0 l/m 0 min 0 min 0 W/m 4,5 km/h (1 Bft) 97,83 %
06.03.2018 21:36 7,9 C 6,7 C 3,9 C 83 % 0 lf 991,1 hPa 0,0 l/m 0 min 0 min 0 W/m 4,5 km/h (1 Bft) 95,74 %
06.03.2018 21:38 7,8 C 6,7 C 3,9 C 84 % 0 lf 991,1 hPa 0,0 l/m 0 min 0 min 0 W/m 2,3 km/h (1 Bft) 97,87 %
06.03.2018 21:40 7,8 C 6,7 C 3,9 C 84 % 0 lf 991,1 hPa 0,0 l/m 0 min 0 min 0 W/m 0,0 km/h (0 Bft) 97,87 %
06.03.2018 21:42 7,8 C 6,7 C 3,9 C 84 % 0 lf 991,1 hPa 0,0 l/m 0 min 0 min 0 W/m 0,0 km/h (0 Bft) 95,74 %
06.03.2018 21:44 7,8 C 6,7 C 3,9 C 84 % 0 lf 991,1 hPa 0,0 l/m 0 min 0 min 0 W/m 0,0 km/h (0 Bft) 97,83 %
06.03.2018 21:46 7,7 C 6,7 C 3,9 C 84 % 0 lf 991,1 hPa 0,0 l/m 0 min 0 min 0 W/m 0,0 km/h (0 Bft) 95,74 %
06.03.2018 21:48 7,7 C 6,7 C 3,9 C 84 % 0 lf 991,0 hPa 0,0 l/m 0 min 0 min 0 W/m 0,0 km/h (0 Bft) 97,87 %
06.03.2018 21:50 7,7 C 6,1 C 3,9 C 84 % 1 lf 991,1 hPa 0,0 l/m 0 min 0 min 0 W/m 0,0 km/h (0 Bft) 97,87 %
06.03.2018 21:52 7,7 C 6,1 C 3,9 C 84 % 1 lf 991,1 hPa 0,0 l/m 0 min 0 min 0 W/m 0,0 km/h (0 Bft) 95,74 %
06.03.2018 21:54 7,7 C 6,1 C 3,9 C 84 % 1 lf 991,1 hPa 0,0 l/m 0 min 0 min 0 W/m 0,0 km/h (0 Bft) 97,87 %
06.03.2018 21:56 7,6 C 6,1 C 3,9 C 83 % 1 lf 991,1 hPa 0,0 l/m 0 min 0 min 0 W/m 0,0 km/h (0 Bft) 95,74 %
06.03.2018 21:58 7,6 C 6,1 C 3,3 C 84 % 1 lf 991,1 hPa 0,0 l/m 0 min 0 min 0 W/m 0,0 km/h (0 Bft) 93,48 %
06.03.2018 22:00 7,6 C 6,1 C 3,3 C 84 % 1 lf 991,1 hPa 0,0 l/m 0 min 0 min 0 W/m 0,0 km/h (0 Bft) 95,74 %
06.03.2018 22:02 7,6 C 6,1 C 3,3 C 84 % 1 lf 991,2 hPa 0,0 l/m 0 min 0 min 0 W/m 0,0 km/h (0 Bft) 93,62 %
06.03.2018 22:04 7,5 C 6,1 C 3,3 C 84 % 1 lf 991,2 hPa 0,0 l/m 0 min 0 min 0 W/m 0,0 km/h (0 Bft) 93,62 %
06.03.2018 22:06 7,5 C 6,1 C 3,3 C 84 % 1 lf 991,2 hPa 0,0 l/m 0 min 0 min 0 W/m 2,3 km/h (1 Bft) 95,74 %
06.03.2018 22:08 7,5 C 6,1 C 3,3 C 84 % 1 lf 991,2 hPa 0,0 l/m 0 min 0 min 0 W/m 2,3 km/h (1 Bft) 91,30 %
06.03.2018 22:10 7,4 C 5,6 C 3,3 C 84 % 1 lf 991,2 hPa 0,0 l/m 0 min 0 min 0 W/m 2,3 km/h (1 Bft) 95,74 %
06.03.2018 22:12 7,4 C 5,6 C 3,3 C 84 % 1 lf 991,2 hPa 0,0 l/m 0 min 0 min 0 W/m 2,3 km/h (1 Bft) 91,49 %
06.03.2018 22:14 7,4 C 5,6 C 3,3 C 84 % 1 lf 991,2 hPa 0,0 l/m 0 min 0 min 0 W/m 0,0 km/h (0 Bft) 91,49 %
06.03.2018 22:16 7,3 C 5,6 C 2,8 C 84 % 1 lf 991,2 hPa 0,0 l/m 0 min 0 min 0 W/m 0,0 km/h (0 Bft) 93,62 %
06.03.2018 22:18 7,3 C 5,6 C 2,8 C 84 % 1 lf 991,2 hPa 0,0 l/m 0 min 0 min 0 W/m 0,0 km/h (0 Bft) 93,62 %
06.03.2018 22:20 7,3 C 5,6 C 2,8 C 84 % 1 lf 991,1 hPa 0,0 l/m 0 min 0 min 0 W/m 0,0 km/h (0 Bft) 95,65 %
06.03.2018 22:22 7,2 C 5,6 C 2,8 C 84 % 1 lf 991,2 hPa 0,0 l/m 0 min 0 min 0 W/m 0,0 km/h (0 Bft) 93,62 %
06.03.2018 22:24 7,2 C 5,6 C 2,8 C 84 % 1 lf 991,2 hPa 0,0 l/m 0 min 0 min 0 W/m 2,3 km/h (1 Bft) 93,62 %
06.03.2018 22:26 7,2 C 5,6 C 2,8 C 85 % 1 lf 991,2 hPa 0,0 l/m 0 min 0 min 0 W/m 4,5 km/h (1 Bft) 95,74 %
06.03.2018 22:28 7,2 C 5,6 C 2,8 C 85 % 1 lf 991,2 hPa 0,0 l/m 0 min 0 min 0 W/m 4,5 km/h (1 Bft) 91,49 %
06.03.2018 22:30 7,2 C 5,6 C 2,8 C 85 % 1 lf 991,2 hPa 0,0 l/m 0 min 0 min 0 W/m 2,3 km/h (1 Bft) 93,62 %
06.03.2018 22:32 7,1 C 5,6 C 2,8 C 85 % 1 lf 991,2 hPa 0,0 l/m 0 min 0 min 0 W/m 0,0 km/h (0 Bft) 95,65 %
06.03.2018 22:34 7,1 C 5,6 C 2,8 C 85 % 1 lf 991,2 hPa 0,0 l/m 0 min 0 min 0 W/m 0,0 km/h (0 Bft) 95,74 %
06.03.2018 22:36 7,1 C 5,6 C 2,8 C 86 % 1 lf 991,2 hPa 0,0 l/m 0 min 0 min 0 W/m 0,0 km/h (0 Bft) 95,74 %
06.03.2018 22:38 7,0 C 5,0 C 2,2 C 86 % 1 lf 991,2 hPa 0,0 l/m 0 min 0 min 0 W/m 0,0 km/h (0 Bft) 95,74 %
06.03.2018 22:40 6,9 C 5,0 C 2,2 C 86 % 1 lf 991,2 hPa 0,0 l/m 0 min 0 min 0 W/m 0,0 km/h (0 Bft) 93,62 %
06.03.2018 22:42 6,9 C 5,0 C 2,2 C 86 % 1 lf 991,2 hPa 0,0 l/m 0 min 0 min 0 W/m 0,0 km/h (0 Bft) 95,74 %
06.03.2018 22:44 6,9 C 5,0 C 2,2 C 86 % 1 lf 991,2 hPa 0,0 l/m 0 min 0 min 0 W/m 0,0 km/h (0 Bft) 95,65 %
06.03.2018 22:46 6,8 C 5,0 C 2,2 C 85 % 1 lf 991,2 hPa 0,0 l/m 0 min 0 min 0 W/m 0,0 km/h (0 Bft) 97,87 %
06.03.2018 22:48 6,8 C 5,0 C 2,2 C 85 % 1 lf 991,2 hPa 0,0 l/m 0 min 0 min 0 W/m 0,0 km/h (0 Bft) 100,00 %
06.03.2018 22:50 6,7 C 5,0 C 2,2 C 85 % 1 lf 991,2 hPa 0,0 l/m 0 min 0 min 0 W/m 0,0 km/h (0 Bft) 97,87 %
06.03.2018 22:52 6,7 C 4,4 C 1,7 C 85 % 1 lf 991,2 hPa 0,0 l/m 0 min 0 min 0 W/m 0,0 km/h (0 Bft) 97,87 %
06.03.2018 22:54 6,7 C 4,4 C 1,7 C 85 % 1 lf 991,2 hPa 0,0 l/m 0 min 0 min 0 W/m 0,0 km/h (0 Bft) 93,62 %
06.03.2018 22:56 6,6 C 4,4 C 1,7 C 85 % 1 lf 991,2 hPa 0,0 l/m 0 min 0 min 0 W/m 0,0 km/h (0 Bft) 95,65 %
06.03.2018 22:58 6,6 C 5,0 C 1,7 C 85 % 1 lf 991,2 hPa 0,0 l/m 0 min 0 min 0 W/m 0,0 km/h (0 Bft) 95,74 %
06.03.2018 23:00 6,5 C 5,0 C 1,7 C 85 % 1 lf 991,2 hPa 0,0 l/m 0 min 0 min 0 W/m 0,0 km/h (0 Bft) 97,87 %
06.03.2018 23:02 6,4 C 5,0 C 2,2 C 85 % 1 lf 991,2 hPa 0,0 l/m 0 min 0 min 0 W/m 0,0 km/h (0 Bft) 97,87 %
06.03.2018 23:04 6,4 C 5,0 C 2,2 C 85 % 1 lf 991,2 hPa 0,0 l/m 0 min 0 min 0 W/m 0,0 km/h (0 Bft) 100,00 %
06.03.2018 23:06 6,4 C 5,0 C 2,2 C 85 % 1 lf 991,2 hPa 0,0 l/m 0 min 0 min 0 W/m 0,0 km/h (0 Bft) 100,00 %
06.03.2018 23:08 6,3 C 5,0 C 1,7 C 85 % 1 lf 991,2 hPa 0,0 l/m 0 min 0 min 0 W/m 0,0 km/h (0 Bft) 100,00 %
06.03.2018 23:10 6,3 C 5,0 C 2,2 C 85 % 2 lf 991,2 hPa 0,0 l/m 0 min 0 min 0 W/m 0,0 km/h (0 Bft) 89,36 %
06.03.2018 23:12 6,2 C 5,0 C 2,2 C 86 % 2 lf 991,3 hPa 0,0 l/m 0 min 0 min 0 W/m 0,0 km/h (0 Bft) 100,00 %
06.03.2018 23:14 6,2 C 5,0 C 1,7 C 86 % 2 lf 991,2 hPa 0,0 l/m 0 min 0 min 0 W/m 0,0 km/h (0 Bft) 97,87 %
06.03.2018 23:16 6,2 C 4,4 C 1,7 C 86 % 2 lf 991,3 hPa 0,0 l/m 0 min 0 min 0 W/m 0,0 km/h (0 Bft) 100,00 %
06.03.2018 23:18 6,1 C 4,4 C 1,7 C 86 % 2 lf 991,3 hPa 0,0 l/m 0 min 0 min 0 W/m 0,0 km/h (0 Bft) 97,83 %
06.03.2018 23:20 6,1 C 4,4 C 1,7 C 86 % 2 lf 991,3 hPa 0,0 l/m 0 min 0 min 0 W/m 0,0 km/h (0 Bft) 100,00 %
06.03.2018 23:22 6,0 C 4,4 C 1,7 C 86 % 2 lf 991,3 hPa 0,0 l/m 0 min 0 min 0 W/m 0,0 km/h (0 Bft) 100,00 %
06.03.2018 23:24 6,0 C 4,4 C 1,7 C 86 % 2 lf 991,3 hPa 0,0 l/m 0 min 0 min 0 W/m 0,0 km/h (0 Bft) 100,00 %
06.03.2018 23:26 5,9 C 4,4 C 1,7 C 86 % 2 lf 991,2 hPa 0,0 l/m 0 min 0 min 0 W/m 0,0 km/h (0 Bft) 100,00 %
06.03.2018 23:28 5,9 C 4,4 C 1,7 C 86 % 2 lf 991,3 hPa 0,0 l/m 0 min 0 min 0 W/m 0,0 km/h (0 Bft) 97,87 %
06.03.2018 23:30 5,8 C 4,4 C 1,7 C 86 % 2 lf 991,3 hPa 0,0 l/m 0 min 0 min 0 W/m 0,0 km/h (0 Bft) 95,65 %
06.03.2018 23:32 5,8 C 4,4 C 1,7 C 86 % 2 lf 991,2 hPa 0,0 l/m 0 min 0 min 0 W/m 0,0 km/h (0 Bft) 93,62 %
06.03.2018 23:34 5,8 C 3,9 C 1,7 C 86 % 3 lf 991,2 hPa 0,0 l/m 0 min 0 min 0 W/m 0,0 km/h (0 Bft) 97,87 %
06.03.2018 23:36 5,7 C 3,9 C 1,7 C 86 % 3 lf 991,3 hPa 0,0 l/m 0 min 0 min 0 W/m 0,0 km/h (0 Bft) 95,74 %
06.03.2018 23:38 5,7 C 3,9 C 1,7 C 86 % 3 lf 991,3 hPa 0,0 l/m 0 min 0 min 0 W/m 0,0 km/h (0 Bft) 95,74 %
06.03.2018 23:40 5,7 C 3,9 C 1,7 C 86 % 3 lf 991,3 hPa 0,0 l/m 0 min 0 min 0 W/m 0,0 km/h (0 Bft) 93,62 %
06.03.2018 23:42 5,7 C 3,9 C 1,7 C 86 % 3 lf 991,2 hPa 0,0 l/m 0 min 0 min 0 W/m 0,0 km/h (0 Bft) 95,65 %
06.03.2018 23:44 5,7 C 3,9 C 1,7 C 87 % 3 lf 991,2 hPa 0,0 l/m 0 min 0 min 0 W/m 0,0 km/h (0 Bft) 97,87 %
06.03.2018 23:46 5,6 C 4,4 C 1,7 C 87 % 2 lf 991,2 hPa 0,0 l/m 0 min 0 min 0 W/m 0,0 km/h (0 Bft) 97,87 %
06.03.2018 23:48 5,6 C 4,4 C 2,2 C 87 % 2 lf 991,2 hPa 0,0 l/m 0 min 0 min 0 W/m 0,0 km/h (0 Bft) 95,74 %
06.03.2018 23:50 5,6 C 4,4 C 2,2 C 87 % 2 lf 991,1 hPa 0,0 l/m 0 min 0 min 0 W/m 0,0 km/h (0 Bft) 95,74 %
06.03.2018 23:52 5,5 C 4,4 C 2,2 C 87 % 2 lf 991,2 hPa 0,0 l/m 0 min 0 min 0 W/m 0,0 km/h (0 Bft) 97,87 %
06.03.2018 23:54 5,5 C 4,4 C 2,2 C 87 % 2 lf 991,2 hPa 0,0 l/m 0 min 0 min 0 W/m 0,0 km/h (0 Bft) 95,65 %
06.03.2018 23:56 5,4 C 4,4 C 2,2 C 87 % 2 lf 991,2 hPa 0,0 l/m 0 min 0 min 0 W/m 0,0 km/h (0 Bft) 93,62 %
06.03.2018 23:58 5,4 C 4,4 C 2,2 C 87 % 2 lf 991,2 hPa 0,0 l/m 0 min 0 min 0 W/m 0,0 km/h (0 Bft) 95,74 %
_ Min-Zeit 02:50 02:02 00:00 14:48 00:00 05:18 - - - - 19:00 12:58
Minimum _ 3,7 C 3,3 C 0,0 C 71 % 0 lf 989,3 hPa - - - - 0,0 km/h (0 Bft) 50,00 %
_ Max-Zeit 14:50 14:40 12:24 03:04 21:04 23:12 00:00 10:38 00:48 10:38 09:18 00:04
Maximum _ 12,4 C 18,9 C 12,8 C 88 % 7 lf 991,3 hPa 0,0 l/m 4 min 2 min 499 W/m 24,8 km/h
O (4 Bft)
100,00 %
Durchschnitt _ 7,6 C 8,3 C 6,0 C 81 % 0 lf 990,0 hPa #0,0 l/m #7:10 h #6 min. 207 W/m 11,0 km/h (2 Bft) 96,51 %
© 2018 W. Hausmann